Observation data for Tahoka on 01/17/2019      Previous  Date  Next       Current Mesonet Observations  Soil Data  Daily Summary Page  Observations in Plain Language
KTAS 170600Z 28012KT 07/M01 A301 RMK A01 T00701012  RH  056%=      5-min Rain = 0
KTAS 170601Z 28011KT 07/M01 A301 RMK A01 T00711012  RH  056%=      5-min Rain = 0
KTAS 170602Z 28011KT 07/M01 A301 RMK A01 T00701013  RH  056%=      5-min Rain = 0
KTAS 170603Z 28011KT 07/M01 A301 RMK A01 T00701013  RH  056%=      5-min Rain = 0
KTAS 170604Z 28012KT 07/M01 A301 RMK A01 T00701013  RH  056%=      5-min Rain = 0
KTAS 170605Z 28011KT 07/M01 A301 RMK A01 T00711013  RH  055%=      5-min Rain = 0
KTAS 170606Z 28012KT 07/M01 A301 RMK A01 T00711013  RH  055%=      5-min Rain = 0
KTAS 170607Z 28011KT 07/M01 A301 RMK A01 T00721012  RH  055%=      5-min Rain = 0
KTAS 170608Z 28011KT 07/M01 A301 RMK A01 T00731013  RH  054%=      5-min Rain = 0
KTAS 170609Z 28011KT 07/M01 A301 RMK A01 T00731013  RH  055%=      5-min Rain = 0
KTAS 170610Z 27010KT 07/M01 A301 RMK A01 T00731013  RH  055%=      5-min Rain = 0
KTAS 170611Z 27011KT 07/M01 A3011 RMK A01 T00731013  RH  054%=      5-min Rain = 0
KTAS 170612Z 27011KT 07/M01 A3011 RMK A01 T00731013  RH  054%=      5-min Rain = 0
KTAS 170613Z 27011KT 07/M01 A3011 RMK A01 T00731013  RH  054%=      5-min Rain = 0
KTAS 170614Z 27011KT 07/M01 A3011 RMK A01 T00741013  RH  054%=      5-min Rain = 0
KTAS 170615Z 27011KT 07/M01 A3011 RMK A01 T00741013  RH  054%=      5-min Rain = 0
KTAS 170616Z 27011KT 07/M01 A3011 RMK A01 T00741013  RH  054%=      5-min Rain = 0
KTAS 170617Z 27010KT 08/M01 A3011 RMK A01 T00751013  RH  054%=      5-min Rain = 0
KTAS 170618Z 27011KT 07/M01 A3011 RMK A01 T00741014  RH  054%=      5-min Rain = 0
KTAS 170619Z 27011KT 07/M01 A3011 RMK A01 T00741014  RH  054%=      5-min Rain = 0
KTAS 170620Z 28010KT 07/M01 A3011 RMK A01 T00741014  RH  054%=      5-min Rain = 0
KTAS 170621Z 28011KT 07/M01 A3011 RMK A01 T00741014  RH  054%=      5-min Rain = 0
KTAS 170622Z 28010KT 07/M01 A3011 RMK A01 T00731014  RH  054%=      5-min Rain = 0
KTAS 170623Z 28010KT 07/M01 A301 RMK A01 T00731014  RH  054%=      5-min Rain = 0
KTAS 170624Z 28010KT 07/M01 A301 RMK A01 T00731014  RH  054%=      5-min Rain = 0
KTAS 170625Z 28009KT 07/M01 A301 RMK A01 T00721014  RH  054%=      5-min Rain = 0
KTAS 170626Z 28010KT 07/M01 A301 RMK A01 T00711014  RH  055%=      5-min Rain = 0
KTAS 170627Z 28010KT 07/M01 A301 RMK A01 T00711014  RH  055%=      5-min Rain = 0
KTAS 170628Z 28011KT 07/M01 A301 RMK A01 T00721013  RH  055%=      5-min Rain = 0
KTAS 170629Z 28011KT 07/M01 A301 RMK A01 T00731013  RH  055%=      5-min Rain = 0
KTAS 170630Z 28011KT 07/M01 A301 RMK A01 T00741012  RH  054%=      5-min Rain = 0
KTAS 170631Z 28011KT 08/M01 A301 RMK A01 T00751012  RH  054%=      5-min Rain = 0
KTAS 170632Z 28011KT 08/M01 A301 RMK A01 T00761012  RH  054%=      5-min Rain = 0
KTAS 170633Z 28011KT 08/M01 A301 RMK A01 T00761011  RH  054%=      5-min Rain = 0
KTAS 170634Z 28012KT 08/M01 A301 RMK A01 T00771011  RH  054%=      5-min Rain = 0
KTAS 170635Z 28012KT 08/M01 A301 RMK A01 T00781011  RH  053%=      5-min Rain = 0
KTAS 170636Z 28011KT 08/M01 A301 RMK A01 T00791011  RH  053%=      5-min Rain = 0
KTAS 170637Z 28011KT 08/M01 A301 RMK A01 T00791011  RH  053%=      5-min Rain = 0
KTAS 170638Z 28011KT 08/M01 A301 RMK A01 T00781011  RH  053%=      5-min Rain = 0
KTAS 170639Z 28011KT 08/M01 A301 RMK A01 T00781011  RH  053%=      5-min Rain = 0
KTAS 170640Z 28010KT 08/M01 A301 RMK A01 T00781011  RH  053%=      5-min Rain = 0
KTAS 170641Z 29011KT 08/M01 A301 RMK A01 T00781011  RH  053%=      5-min Rain = 0
KTAS 170642Z 29011KT 08/M01 A301 RMK A01 T00781011  RH  053%=      5-min Rain = 0
KTAS 170643Z 29011KT 08/M01 A301 RMK A01 T00771011  RH  053%=      5-min Rain = 0
KTAS 170644Z 29009KT 08/M01 A301 RMK A01 T00771012  RH  053%=      5-min Rain = 0
KTAS 170645Z 29010KT 08/M01 A301 RMK A01 T00761012  RH  054%=      5-min Rain = 0
KTAS 170646Z 29010KT 08/M01 A301 RMK A01 T00761012  RH  054%=      5-min Rain = 0
KTAS 170647Z 29011KT 08/M01 A301 RMK A01 T00761012  RH  054%=      5-min Rain = 0
KTAS 170648Z 29011KT 08/M01 A301 RMK A01 T00751012  RH  054%=      5-min Rain = 0
KTAS 170649Z 30010KT 08/M01 A301 RMK A01 T00751012  RH  054%=      5-min Rain = 0
KTAS 170650Z 29009KT 07/M01 A301 RMK A01 T00741012  RH  054%=      5-min Rain = 0
KTAS 170651Z 29010KT 07/M01 A301 RMK A01 T00731012  RH  055%=      5-min Rain = 0
KTAS 170652Z 29010KT 07/M01 A301 RMK A01 T00731012  RH  055%=      5-min Rain = 0
KTAS 170653Z 29010KT 07/M01 A301 RMK A01 T00721012  RH  055%=      5-min Rain = 0
KTAS 170654Z 29010KT 07/M01 A301 RMK A01 T00721012  RH  055%=      5-min Rain = 0
KTAS 170655Z 28010KT 07/M01 A301 RMK A01 T00711012  RH  056%=      5-min Rain = 0
KTAS 170656Z 29011KT 07/M01 A301 RMK A01 T00701012  RH  056%=      5-min Rain = 0
KTAS 170657Z 29011KT 07/M01 A301 RMK A01 T00701012  RH  056%=      5-min Rain = 0
KTAS 170658Z 29011KT 07/M01 A301 RMK A01 T00701012  RH  056%=      5-min Rain = 0
KTAS 170659Z 29011KT 07/M01 A301 RMK A01 T00701011  RH  056%=      5-min Rain = 0
KTAS 170700Z 29011KT 07/M01 A301 RMK A01 T00711011  RH  056%=      5-min Rain = 0
KTAS 170701Z 28011KT 07/M01 A3009 RMK A01 T00711011  RH  056%=      5-min Rain = 0
KTAS 170702Z 28011KT 07/M01 A3009 RMK A01 T00721010  RH  056%=      5-min Rain = 0
KTAS 170703Z 28011KT 07/M01 A3009 RMK A01 T00721011  RH  056%=      5-min Rain = 0
KTAS 170704Z 28012KT 07/M01 A3009 RMK A01 T00721010  RH  056%=      5-min Rain = 0
KTAS 170705Z 28012KT 07/M01 A3009 RMK A01 T00721011  RH  056%=      5-min Rain = 0
KTAS 170706Z 29012KT 07/M01 A3009 RMK A01 T00731010  RH  055%=      5-min Rain = 0
KTAS 170707Z 29011KT 07/M01 A3009 RMK A01 T00731011  RH  055%=      5-min Rain = 0
KTAS 170708Z 29012KT 07/M01 A3009 RMK A01 T00731011  RH  055%=      5-min Rain = 0
KTAS 170709Z 29012KT 07/M01 A3009 RMK A01 T00741010  RH  055%=      5-min Rain = 0
KTAS 170710Z 29013KT 08/M01 A3009 RMK A01 T00751010  RH  055%=      5-min Rain = 0
KTAS 170711Z 29012KT 08/M01 A3009 RMK A01 T00751010  RH  055%=      5-min Rain = 0
KTAS 170712Z 29013KT 08/M01 A3009 RMK A01 T00761010  RH  054%=      5-min Rain = 0
KTAS 170713Z 29012KT 08/M01 A3009 RMK A01 T00761010  RH  054%=      5-min Rain = 0
KTAS 170714Z 29012KT 08/M01 A3009 RMK A01 T00771010  RH  054%=      5-min Rain = 0
KTAS 170715Z 29013KT 08/M01 A3009 RMK A01 T00771010  RH  054%=      5-min Rain = 0
KTAS 170716Z 29013KT 08/M01 A3009 RMK A01 T00791009  RH  054%=      5-min Rain = 0
KTAS 170717Z 29012KT 08/M01 A3009 RMK A01 T00801009  RH  053%=      5-min Rain = 0
KTAS 170718Z 29013KT 08/M01 A3009 RMK A01 T00811009  RH  053%=      5-min Rain = 0
KTAS 170719Z 29012KT 08/M01 A3009 RMK A01 T00811009  RH  053%=      5-min Rain = 0
KTAS 170720Z 29012KT 08/M01 A3009 RMK A01 T00811009  RH  053%=      5-min Rain = 0
KTAS 170721Z 29012KT 08/M01 A3009 RMK A01 T00801010  RH  053%=      5-min Rain = 0
KTAS 170722Z 29012KT 08/M01 A3009 RMK A01 T00811009  RH  053%=      5-min Rain = 0
KTAS 170723Z 29013KT 08/M01 A3009 RMK A01 T00821009  RH  053%=      5-min Rain = 0
KTAS 170724Z 29012KT 08/M01 A3009 RMK A01 T00821009  RH  053%=      5-min Rain = 0
KTAS 170725Z 28013KT 08/M01 A3009 RMK A01 T00811009  RH  053%=      5-min Rain = 0
KTAS 170726Z 28014KT 08/M01 A3009 RMK A01 T00831008  RH  053%=      5-min Rain = 0
KTAS 170727Z 28014KT 08/M01 A3009 RMK A01 T00841008  RH  052%=      5-min Rain = 0
KTAS 170728Z 28014KT 09/M01 A3009 RMK A01 T00851008  RH  052%=      5-min Rain = 0
KTAS 170729Z 28014KT 09/M01 A3009 RMK A01 T00861008  RH  052%=      5-min Rain = 0
KTAS 170730Z 28015KT 09/M01 A3009 RMK A01 T00861009  RH  052%=      5-min Rain = 0
KTAS 170731Z 28014KT 09/M01 A3009 RMK A01 T00861009  RH  051%=      5-min Rain = 0
KTAS 170732Z 28016KT 09/M01 A3009 RMK A01 T00861009  RH  051%=      5-min Rain = 0
KTAS 170733Z 28015KT 09/M01 A3009 RMK A01 T00861009  RH  051%=      5-min Rain = 0
KTAS 170734Z 28014KT 09/M01 A3009 RMK A01 T00851009  RH  051%=      5-min Rain = 0
KTAS 170735Z 28014KT 09/M01 A3009 RMK A01 T00851009  RH  052%=      5-min Rain = 0
KTAS 170736Z 28016KT 08/M01 A3009 RMK A01 T00841009  RH  052%=      5-min Rain = 0
KTAS 170737Z 28015KT 08/M01 A3008 RMK A01 T00841009  RH  052%=      5-min Rain = 0
KTAS 170738Z 28014KT 08/M01 A3008 RMK A01 T00831009  RH  052%=      5-min Rain = 0
KTAS 170739Z 28015KT 08/M01 A3008 RMK A01 T00831009  RH  052%=      5-min Rain = 0
KTAS 170740Z 28016KT 08/M01 A3008 RMK A01 T00831009  RH  052%=      5-min Rain = 0
KTAS 170741Z 28015KT 08/M01 A3008 RMK A01 T00841009  RH  052%=      5-min Rain = 0
KTAS 170742Z 29015KT 08/M01 A3008 RMK A01 T00841009  RH  052%=      5-min Rain = 0
KTAS 170743Z 29014KT 08/M01 A3008 RMK A01 T00841009  RH  052%=      5-min Rain = 0
KTAS 170744Z 29014KT 08/M01 A3008 RMK A01 T00841009  RH  052%=      5-min Rain = 0
KTAS 170745Z 28015KT 08/M01 A3008 RMK A01 T00831009  RH  052%=      5-min Rain = 0
KTAS 170746Z 29015KT 08/M01 A3008 RMK A01 T00841009  RH  052%=      5-min Rain = 0
KTAS 170747Z 29014KT 08/M01 A3009 RMK A01 T00841009  RH  052%=      5-min Rain = 0
KTAS 170748Z 28014KT 08/M01 A3009 RMK A01 T00831009  RH  052%=      5-min Rain = 0
KTAS 170749Z 28014KT 08/M01 A3009 RMK A01 T00831010  RH  052%=      5-min Rain = 0
KTAS 170750Z 28013G18KT 08/M01 A3009 RMK A01 T00821009  RH  052%=      5-min Rain = 0
KTAS 170751Z 28013KT 08/M01 A3009 RMK A01 T00821009  RH  053%=      5-min Rain = 0
KTAS 170752Z 28013KT 08/M01 A3009 RMK A01 T00821009  RH  053%=      5-min Rain = 0
KTAS 170753Z 28014KT 08/M01 A3009 RMK A01 T00821009  RH  052%=      5-min Rain = 0
KTAS 170754Z 28014KT 08/M01 A3009 RMK A01 T00821009  RH  052%=      5-min Rain = 0
KTAS 170755Z 28014KT 08/M01 A3009 RMK A01 T00821010  RH  052%=      5-min Rain = 0
KTAS 170756Z 28013KT 08/M01 A3009 RMK A01 T00821010  RH  052%=      5-min Rain = 0
KTAS 170757Z 29012KT 08/M01 A3009 RMK A01 T00821010  RH  052%=      5-min Rain = 0
KTAS 170758Z 29013KT 08/M01 A3009 RMK A01 T00811010  RH  053%=      5-min Rain = 0
KTAS 170759Z 28013KT 08/M01 A3009 RMK A01 T00811009  RH  053%=      5-min Rain = 0
KTAS 170800Z 29013KT 08/M01 A3009 RMK A01 T00831009  RH  052%=      5-min Rain = 0
KTAS 170801Z 28014KT 08/M01 A3009 RMK A01 T00831010  RH  052%=      5-min Rain = 0
KTAS 170802Z 29014KT 08/M01 A3009 RMK A01 T00831010  RH  052%=      5-min Rain = 0
KTAS 170803Z 29013KT 08/M01 A3009 RMK A01 T00841010  RH  052%=      5-min Rain = 0
KTAS 170804Z 28013KT 08/M01 A3009 RMK A01 T00841010  RH  052%=      5-min Rain = 0
KTAS 170805Z 28013KT 08/M01 A3009 RMK A01 T00841010  RH  052%=      5-min Rain = 0
KTAS 170806Z 28013KT 09/M01 A3009 RMK A01 T00851010  RH  051%=      5-min Rain = 0
KTAS 170807Z 29015KT 09/M01 A3009 RMK A01 T00871010  RH  051%=      5-min Rain = 0
KTAS 170808Z 29014KT 09/M01 A3009 RMK A01 T00881010  RH  050%=      5-min Rain = 0
KTAS 170809Z 29014KT 09/M01 A3009 RMK A01 T00891010  RH  050%=      5-min Rain = 0
KTAS 170810Z 29014KT 09/M01 A3009 RMK A01 T00891010  RH  050%=      5-min Rain = 0
KTAS 170811Z 29014KT 09/M01 A3009 RMK A01 T00901010  RH  049%=      5-min Rain = 0
KTAS 170812Z 28014KT 09/M01 A3009 RMK A01 T00911010  RH  049%=      5-min Rain = 0
KTAS 170813Z 28014KT 09/M01 A3009 RMK A01 T00911011  RH  049%=      5-min Rain = 0
KTAS 170814Z 28015KT 09/M01 A3009 RMK A01 T00911011  RH  049%=      5-min Rain = 0
KTAS 170815Z 28015KT 09/M01 A3009 RMK A01 T00921011  RH  048%=      5-min Rain = 0
KTAS 170816Z 28015KT 09/M01 A3009 RMK A01 T00931011  RH  048%=      5-min Rain = 0
KTAS 170817Z 28014KT 09/M01 A3009 RMK A01 T00941012  RH  048%=      5-min Rain = 0
KTAS 170818Z 28015KT 09/M01 A3009 RMK A01 T00941012  RH  048%=      5-min Rain = 0
KTAS 170819Z 28014G19KT 09/M01 A3009 RMK A01 T00941012  RH  047%=      5-min Rain = 0
KTAS 170820Z 29013KT 10/M01 A3009 RMK A01 T00951012  RH  047%=      5-min Rain = 0
KTAS 170821Z 29014KT 10/M01 A3009 RMK A01 T00961012  RH  047%=      5-min Rain = 0
KTAS 170822Z 29016KT 10/M01 A3009 RMK A01 T00971012  RH  047%=      5-min Rain = 0
KTAS 170823Z 29016KT 10/M01 A3009 RMK A01 T00991012  RH  046%=      5-min Rain = 0
KTAS 170824Z 29015KT 10/M01 A3009 RMK A01 T01001013  RH  045%=      5-min Rain = 0
KTAS 170825Z 29014KT 10/M01 A301 RMK A01 T01011013  RH  045%=      5-min Rain = 0
KTAS 170826Z 29015KT 10/M01 A301 RMK A01 T01011013  RH  045%=      5-min Rain = 0
KTAS 170827Z 30015KT 10/M01 A301 RMK A01 T01031013  RH  044%=      5-min Rain = 0
KTAS 170828Z 30014KT 10/M01 A301 RMK A01 T01041013  RH  044%=      5-min Rain = 0
KTAS 170829Z 30014KT 10/M01 A301 RMK A01 T01031014  RH  044%=      5-min Rain = 0
KTAS 170830Z 30015KT 10/M01 A301 RMK A01 T01031014  RH  044%=      5-min Rain = 0
KTAS 170831Z 30015KT 10/M01 A301 RMK A01 T01041014  RH  044%=      5-min Rain = 0
KTAS 170832Z 30013KT 11/M01 A301 RMK A01 T01051014  RH  044%=      5-min Rain = 0
KTAS 170833Z 29014KT 10/M01 A301 RMK A01 T01041014  RH  044%=      5-min Rain = 0
KTAS 170834Z 29015KT 10/M02 A301 RMK A01 T01031015  RH  044%=      5-min Rain = 0
KTAS 170835Z 29014KT 10/M01 A301 RMK A01 T01031014  RH  044%=      5-min Rain = 0
KTAS 170836Z 29015KT 10/M02 A301 RMK A01 T01031015  RH  044%=      5-min Rain = 0
KTAS 170837Z 29016KT 10/M02 A301 RMK A01 T01031015  RH  044%=      5-min Rain = 0
KTAS 170838Z 29016KT 10/M02 A301 RMK A01 T01041015  RH  044%=      5-min Rain = 0
KTAS 170839Z 29015KT 10/M02 A301 RMK A01 T01041015  RH  043%=      5-min Rain = 0
KTAS 170840Z 29015KT 10/M02 A301 RMK A01 T01041015  RH  043%=      5-min Rain = 0
KTAS 170841Z 30015KT 10/M02 A301 RMK A01 T01041015  RH  044%=      5-min Rain = 0
KTAS 170842Z 30015KT 10/M02 A301 RMK A01 T01031015  RH  044%=      5-min Rain = 0
KTAS 170843Z 29014KT 10/M02 A301 RMK A01 T01031015  RH  044%=      5-min Rain = 0
KTAS 170844Z 29016KT 10/M02 A301 RMK A01 T01031015  RH  044%=      5-min Rain = 0
KTAS 170845Z 29015KT 10/M01 A301 RMK A01 T01031014  RH  044%=      5-min Rain = 0
KTAS 170846Z 30014KT 10/M02 A3011 RMK A01 T01021015  RH  044%=      5-min Rain = 0
KTAS 170847Z 30015KT 10/M02 A3011 RMK A01 T01011015  RH  045%=      5-min Rain = 0
KTAS 170848Z 30015KT 10/M01 A3011 RMK A01 T01011014  RH  045%=      5-min Rain = 0
KTAS 170849Z 31013G18KT 10/M01 A3011 RMK A01 T01011014  RH  044%=      5-min Rain = 0
KTAS 170850Z 30013KT 10/M02 A3011 RMK A01 T01001015  RH  045%=      5-min Rain = 0
KTAS 170851Z 30012KT 10/M02 A3011 RMK A01 T00991015  RH  045%=      5-min Rain = 0
KTAS 170852Z 30013KT 10/M02 A3011 RMK A01 T00981015  RH  045%=      5-min Rain = 0
KTAS 170853Z 29012KT 10/M02 A3011 RMK A01 T00971015  RH  046%=      5-min Rain = 0
KTAS 170854Z 29013KT 10/M02 A3011 RMK A01 T00961015  RH  046%=      5-min Rain = 0
KTAS 170855Z 29013KT 10/M01 A3011 RMK A01 T00961014  RH  046%=      5-min Rain = 0
KTAS 170856Z 29014KT 10/M01 A3011 RMK A01 T00961014  RH  046%=      5-min Rain = 0
KTAS 170857Z 29015KT 10/M01 A3011 RMK A01 T00951014  RH  046%=      5-min Rain = 0
KTAS 170858Z 29014KT 10/M01 A3011 RMK A01 T00951014  RH  047%=      5-min Rain = 0
KTAS 170859Z 28015KT 10/M01 A3011 RMK A01 T00951014  RH  047%=      5-min Rain = 0
KTAS 170900Z 28015KT 10/M01 A3011 RMK A01 T00951014  RH  046%=      5-min Rain = 0
KTAS 170901Z 28015KT 10/M01 A301 RMK A01 T00951014  RH  047%=      5-min Rain = 0
KTAS 170902Z 28015KT 10/M01 A301 RMK A01 T00951014  RH  047%=      5-min Rain = 0
KTAS 170903Z 28016KT 10/M01 A301 RMK A01 T00961013  RH  047%=      5-min Rain = 0
KTAS 170904Z 28017KT 10/M01 A3011 RMK A01 T00971013  RH  046%=      5-min Rain = 0
KTAS 170905Z 28016KT 10/M01 A3011 RMK A01 T00991013  RH  046%=      5-min Rain = 0
KTAS 170906Z 28016KT 10/M01 A3011 RMK A01 T00991014  RH  045%=      5-min Rain = 0
KTAS 170907Z 29016KT 10/M01 A3011 RMK A01 T00991014  RH  045%=      5-min Rain = 0
KTAS 170908Z 28017KT 10/M01 A3011 RMK A01 T01001014  RH  045%=      5-min Rain = 0
KTAS 170909Z 29015KT 10/M01 A3011 RMK A01 T01001014  RH  045%=      5-min Rain = 0
KTAS 170910Z 29016KT 10/M01 A3011 RMK A01 T01001014  RH  045%=      5-min Rain = 0
KTAS 170911Z 28016KT 10/M02 A3011 RMK A01 T01001015  RH  045%=      5-min Rain = 0
KTAS 170912Z 29015KT 10/M02 A3011 RMK A01 T01001015  RH  045%=      5-min Rain = 0
KTAS 170913Z 29015KT 10/M02 A3011 RMK A01 T01001015  RH  045%=      5-min Rain = 0
KTAS 170914Z 30013KT 10/M02 A3011 RMK A01 T00991015  RH  045%=      5-min Rain = 0
KTAS 170915Z 30012KT 10/M02 A3011 RMK A01 T00981015  RH  045%=      5-min Rain = 0
KTAS 170916Z 30013KT 10/M02 A3011 RMK A01 T00971016  RH  045%=      5-min Rain = 0
KTAS 170917Z 30012KT 10/M02 A3011 RMK A01 T00971016  RH  045%=      5-min Rain = 0
KTAS 170918Z 30013KT 10/M02 A3012 RMK A01 T00971016  RH  045%=      5-min Rain = 0
KTAS 170919Z 30013KT 10/M02 A3012 RMK A01 T00971016  RH  045%=      5-min Rain = 0
KTAS 170920Z 29014KT 10/M02 A3012 RMK A01 T00971016  RH  045%=      5-min Rain = 0
KTAS 170921Z 29014KT 10/M02 A3012 RMK A01 T00971016  RH  045%=      5-min Rain = 0
KTAS 170922Z 29013KT 10/M02 A3012 RMK A01 T00961016  RH  046%=      5-min Rain = 0
KTAS 170923Z 29015KT 10/M02 A3012 RMK A01 T00961016  RH  046%=      5-min Rain = 0
KTAS 170924Z 28015KT 10/M02 A3011 RMK A01 T00961016  RH  046%=      5-min Rain = 0
KTAS 170925Z 28016KT 10/M02 A3011 RMK A01 T00961016  RH  046%=      5-min Rain = 0
KTAS 170926Z 28015KT 10/M02 A3011 RMK A01 T00971016  RH  045%=      5-min Rain = 0
KTAS 170927Z 28016KT 10/M02 A3011 RMK A01 T00971016  RH  045%=      5-min Rain = 0
KTAS 170928Z 28015KT 10/M02 A3011 RMK A01 T00971016  RH  045%=      5-min Rain = 0
KTAS 170929Z 28015KT 10/M02 A3011 RMK A01 T00981016  RH  045%=      5-min Rain = 0
KTAS 170930Z 28015KT 10/M02 A3011 RMK A01 T00971016  RH  045%=      5-min Rain = 0
KTAS 170931Z 28015KT 10/M02 A3011 RMK A01 T00981016  RH  045%=      5-min Rain = 0
KTAS 170932Z 28016KT 10/M02 A3012 RMK A01 T00981016  RH  045%=      5-min Rain = 0
KTAS 170933Z 29015KT 10/M02 A3012 RMK A01 T00991017  RH  044%=      5-min Rain = 0
KTAS 170934Z 28016KT 10/M02 A3012 RMK A01 T00991017  RH  044%=      5-min Rain = 0
KTAS 170935Z 29014KT 10/M02 A3012 RMK A01 T01001017  RH  044%=      5-min Rain = 0
KTAS 170936Z 29015KT 10/M02 A3012 RMK A01 T01001017  RH  044%=      5-min Rain = 0
KTAS 170937Z 29016KT 10/M02 A3012 RMK A01 T01011017  RH  043%=      5-min Rain = 0
KTAS 170938Z 29015KT 10/M02 A3012 RMK A01 T01021018  RH  043%=      5-min Rain = 0
KTAS 170939Z 29015KT 10/M02 A3012 RMK A01 T01031018  RH  043%=      5-min Rain = 0
KTAS 170940Z 29013KT 10/M02 A3012 RMK A01 T01031018  RH  043%=      5-min Rain = 0
KTAS 170941Z 29015KT 10/M02 A3012 RMK A01 T01031018  RH  043%=      5-min Rain = 0
KTAS 170942Z 29015KT 10/M02 A3012 RMK A01 T01041018  RH  042%=      5-min Rain = 0
KTAS 170943Z 29015KT 10/M02 A3012 RMK A01 T01031019  RH  042%=      5-min Rain = 0
KTAS 170944Z 29014KT 10/M02 A3012 RMK A01 T01031019  RH  043%=      5-min Rain = 0
KTAS 170945Z 29016KT 10/M02 A3012 RMK A01 T01031019  RH  043%=      5-min Rain = 0
KTAS 170946Z 29016KT 10/M02 A3012 RMK A01 T01041018  RH  042%=      5-min Rain = 0
KTAS 170947Z 29015KT 10/M02 A3012 RMK A01 T01041019  RH  042%=      5-min Rain = 0
KTAS 170948Z 29016KT 10/M02 A3012 RMK A01 T01041019  RH  042%=      5-min Rain = 0
KTAS 170949Z 29016KT 10/M02 A3012 RMK A01 T01031019  RH  042%=      5-min Rain = 0
KTAS 170950Z 29015KT 10/M02 A3012 RMK A01 T01041019  RH  042%=      5-min Rain = 0
KTAS 170951Z 29017KT 11/M02 A3012 RMK A01 T01051019  RH  042%=      5-min Rain = 0
KTAS 170952Z 29016KT 11/M02 A3012 RMK A01 T01051019  RH  042%=      5-min Rain = 0
KTAS 170953Z 29016KT 11/M02 A3012 RMK A01 T01051019  RH  042%=      5-min Rain = 0
KTAS 170954Z 29016KT 11/M02 A3012 RMK A01 T01051019  RH  042%=      5-min Rain = 0
KTAS 170955Z 29016G21KT 11/M02 A3012 RMK A01 T01061019  RH  042%=      5-min Rain = 0
KTAS 170956Z 29016KT 11/M02 A3012 RMK A01 T01061019  RH  042%=      5-min Rain = 0
KTAS 170957Z 29016KT 11/M02 A3012 RMK A01 T01051020  RH  042%=      5-min Rain = 0
KTAS 170958Z 29016KT 11/M02 A3012 RMK A01 T01061019  RH  042%=      5-min Rain = 0
KTAS 170959Z 29016KT 11/M02 A3012 RMK A01 T01051020  RH  042%=      5-min Rain = 0
KTAS 171000Z 29014KT 11/M02 A3012 RMK A01 T01051019  RH  042%=      5-min Rain = 0
KTAS 171001Z 30014KT 10/M02 A3012 RMK A01 T01031020  RH  042%=      5-min Rain = 0
KTAS 171002Z 30013G18KT 10/M02 A3012 RMK A01 T01021020  RH  042%=      5-min Rain = 0
KTAS 171003Z 30013KT 10/M02 A3013 RMK A01 T01021020  RH  042%=      5-min Rain = 0
KTAS 171004Z 30013KT 10/M02 A3013 RMK A01 T01011020  RH  043%=      5-min Rain = 0
KTAS 171005Z 30012KT 10/M02 A3013 RMK A01 T01011020  RH  043%=      5-min Rain = 0
KTAS 171006Z 30013KT 10/M02 A3013 RMK A01 T01011020  RH  043%=      5-min Rain = 0
KTAS 171007Z 30011KT 10/M02 A3013 RMK A01 T01001020  RH  043%=      5-min Rain = 0
KTAS 171008Z 30011KT 10/M02 A3013 RMK A01 T00991020  RH  043%=      5-min Rain = 0
KTAS 171009Z 29012KT 10/M02 A3013 RMK A01 T00981020  RH  043%=      5-min Rain = 0
KTAS 171010Z 29012KT 10/M02 A3013 RMK A01 T00981020  RH  044%=      5-min Rain = 0
KTAS 171011Z 29012KT 10/M02 A3013 RMK A01 T00991020  RH  044%=      5-min Rain = 0
KTAS 171012Z 29012KT 10/M02 A3013 RMK A01 T00991019  RH  043%=      5-min Rain = 0
KTAS 171013Z 29012KT 10/M02 A3013 RMK A01 T00981020  RH  044%=      5-min Rain = 0
KTAS 171014Z 29013KT 10/M02 A3013 RMK A01 T00981020  RH  044%=      5-min Rain = 0
KTAS 171015Z 29012G17KT 10/M02 A3013 RMK A01 T00981019  RH  044%=      5-min Rain = 0
KTAS 171016Z 29012KT 10/M02 A3013 RMK A01 T00991019  RH  044%=      5-min Rain = 0
KTAS 171017Z 29012KT 10/M02 A3013 RMK A01 T00981019  RH  044%=      5-min Rain = 0
KTAS 171018Z 29013KT 10/M02 A3013 RMK A01 T00991019  RH  044%=      5-min Rain = 0
KTAS 171019Z 29012KT 10/M02 A3012 RMK A01 T00991019  RH  044%=      5-min Rain = 0
KTAS 171020Z 28013KT 10/M02 A3012 RMK A01 T00991019  RH  044%=      5-min Rain = 0
KTAS 171021Z 29012KT 10/M02 A3013 RMK A01 T01001019  RH  043%=      5-min Rain = 0
KTAS 171022Z 29012KT 10/M02 A3013 RMK A01 T00991020  RH  044%=      5-min Rain = 0
KTAS 171023Z 29012KT 10/M02 A3013 RMK A01 T00981019  RH  044%=      5-min Rain = 0
KTAS 171024Z 29011KT 10/M02 A3013 RMK A01 T00991019  RH  044%=      5-min Rain = 0
KTAS 171025Z 29010KT 10/M02 A3013 RMK A01 T00981020  RH  044%=      5-min Rain = 0
KTAS 171026Z 30010KT 10/M02 A3013 RMK A01 T00971020  RH  044%=      5-min Rain = 0
KTAS 171027Z 29010KT 10/M02 A3014 RMK A01 T00971020  RH  044%=      5-min Rain = 0
KTAS 171028Z 29009KT 10/M02 A3014 RMK A01 T00971020  RH  044%=      5-min Rain = 0
KTAS 171029Z 29009KT 10/M02 A3014 RMK A01 T00951020  RH  044%=      5-min Rain = 0
KTAS 171030Z 29009KT 10/M02 A3014 RMK A01 T00951020  RH  045%=      5-min Rain = 0
KTAS 171031Z 29009KT 09/M02 A3014 RMK A01 T00941020  RH  045%=      5-min Rain = 0
KTAS 171032Z 29010KT 09/M02 A3014 RMK A01 T00921021  RH  045%=      5-min Rain = 0
KTAS 171033Z 29010KT 09/M02 A3014 RMK A01 T00911020  RH  046%=      5-min Rain = 0
KTAS 171034Z 29010KT 09/M02 A3014 RMK A01 T00901020  RH  046%=      5-min Rain = 0
KTAS 171035Z 29010KT 09/M02 A3014 RMK A01 T00891020  RH  046%=      5-min Rain = 0
KTAS 171036Z 29010KT 09/M02 A3014 RMK A01 T00901020  RH  046%=      5-min Rain = 0
KTAS 171037Z 29010KT 09/M02 A3014 RMK A01 T00891020  RH  046%=      5-min Rain = 0
KTAS 171038Z 28010KT 09/M02 A3014 RMK A01 T00881020  RH  047%=      5-min Rain = 0
KTAS 171039Z 28010KT 09/M02 A3014 RMK A01 T00881020  RH  047%=      5-min Rain = 0
KTAS 171040Z 28011KT 09/M02 A3014 RMK A01 T00871020  RH  047%=      5-min Rain = 0
KTAS 171041Z 28010KT 09/M02 A3014 RMK A01 T00861020  RH  047%=      5-min Rain = 0
KTAS 171042Z 28010KT 09/M02 A3014 RMK A01 T00851020  RH  048%=      5-min Rain = 0
KTAS 171043Z 28010KT 08/M02 A3013 RMK A01 T00831020  RH  048%=      5-min Rain = 0
KTAS 171044Z 28010KT 08/M02 A3013 RMK A01 T00821020  RH  048%=      5-min Rain = 0
KTAS 171045Z 28010KT 08/M02 A3013 RMK A01 T00821019  RH  049%=      5-min Rain = 0
KTAS 171046Z 28010KT 08/M02 A3013 RMK A01 T00841019  RH  048%=      5-min Rain = 0
KTAS 171047Z 28010KT 08/M02 A3013 RMK A01 T00841019  RH  048%=      5-min Rain = 0
KTAS 171048Z 28010KT 09/M02 A3013 RMK A01 T00851018  RH  048%=      5-min Rain = 0
KTAS 171049Z 28010KT 09/M02 A3013 RMK A01 T00861018  RH  048%=      5-min Rain = 0
KTAS 171050Z 28010KT 09/M02 A3013 RMK A01 T00851019  RH  048%=      5-min Rain = 0
KTAS 171051Z 29010KT 09/M02 A3013 RMK A01 T00851019  RH  048%=      5-min Rain = 0
KTAS 171052Z 29009KT 09/M02 A3013 RMK A01 T00851019  RH  048%=      5-min Rain = 0
KTAS 171053Z 29009KT 09/M02 A3014 RMK A01 T00851019  RH  048%=      5-min Rain = 0
KTAS 171054Z 29009KT 08/M02 A3014 RMK A01 T00841019  RH  048%=      5-min Rain = 0
KTAS 171055Z 29009KT 09/M02 A3014 RMK A01 T00851019  RH  048%=      5-min Rain = 0
KTAS 171056Z 29008KT 08/M02 A3014 RMK A01 T00841020  RH  048%=      5-min Rain = 0
KTAS 171057Z 28009KT 08/M02 A3013 RMK A01 T00831020  RH  048%=      5-min Rain = 0
KTAS 171058Z 28009KT 08/M02 A3013 RMK A01 T00821020  RH  048%=      5-min Rain = 0
KTAS 171059Z 28008KT 08/M02 A3013 RMK A01 T00831020  RH  049%=      5-min Rain = 0
KTAS 171100Z 28008KT 08/M02 A3013 RMK A01 T00811020  RH  049%=      5-min Rain = 0
KTAS 171101Z 29008KT 08/M02 A3013 RMK A01 T00801020  RH  049%=      5-min Rain = 0
KTAS 171102Z 29008KT 08/M02 A3014 RMK A01 T00811020  RH  049%=      5-min Rain = 0
KTAS 171103Z 29008KT 08/M02 A3014 RMK A01 T00801020  RH  049%=      5-min Rain = 0
KTAS 171104Z 30008KT 08/M02 A3014 RMK A01 T00791021  RH  049%=      5-min Rain = 0
KTAS 171105Z 30007KT 08/M02 A3014 RMK A01 T00781021  RH  050%=      5-min Rain = 0
KTAS 171106Z 30008KT 08/M02 A3014 RMK A01 T00771021  RH  050%=      5-min Rain = 0
KTAS 171107Z 30008KT 08/M02 A3014 RMK A01 T00771020  RH  050%=      5-min Rain = 0
KTAS 171108Z 30007KT 08/M02 A3014 RMK A01 T00761021  RH  050%=      5-min Rain = 0
KTAS 171109Z 31007KT 08/M02 A3014 RMK A01 T00751021  RH  051%=      5-min Rain = 0
KTAS 171110Z 31007KT 08/M02 A3014 RMK A01 T00751021  RH  051%=      5-min Rain = 0
KTAS 171111Z 30006KT 07/M02 A3014 RMK A01 T00741022  RH  051%=      5-min Rain = 0
KTAS 171112Z 30006KT 07/M02 A3014 RMK A01 T00721022  RH  051%=      5-min Rain = 0
KTAS 171113Z 29007KT 07/M02 A3014 RMK A01 T00721022  RH  051%=      5-min Rain = 0
KTAS 171114Z 29008KT 07/M02 A3014 RMK A01 T00721021  RH  052%=      5-min Rain = 0
KTAS 171115Z 28009KT 07/M02 A3014 RMK A01 T00721020  RH  052%=      5-min Rain = 0
KTAS 171116Z 28009KT 07/M02 A3014 RMK A01 T00711021  RH  052%=      5-min Rain = 0
KTAS 171117Z 28009KT 07/M02 A3014 RMK A01 T00701021  RH  052%=      5-min Rain = 0
KTAS 171118Z 27009KT 07/M02 A3013 RMK A01 T00691021  RH  053%=      5-min Rain = 0
KTAS 171119Z 27009KT 07/M02 A3013 RMK A01 T00681020  RH  053%=      5-min Rain = 0
KTAS 171120Z 27008KT 07/M02 A3013 RMK A01 T00681020  RH  053%=      5-min Rain = 0
KTAS 171121Z 28008KT 07/M02 A3013 RMK A01 T00681020  RH  054%=      5-min Rain = 0
KTAS 171122Z 28008KT 07/M02 A3014 RMK A01 T00681020  RH  054%=      5-min Rain = 0
KTAS 171123Z 29007KT 07/M02 A3014 RMK A01 T00681020  RH  053%=      5-min Rain = 0
KTAS 171124Z 30007KT 07/M02 A3014 RMK A01 T00661021  RH  054%=      5-min Rain = 0
KTAS 171125Z 29008KT 07/M02 A3014 RMK A01 T00651021  RH  054%=      5-min Rain = 0
KTAS 171126Z 29009KT 07/M02 A3014 RMK A01 T00651021  RH  054%=      5-min Rain = 0
KTAS 171127Z 28009KT 06/M02 A3014 RMK A01 T00641020  RH  055%=      5-min Rain = 0
KTAS 171128Z 28009KT 06/M02 A3014 RMK A01 T00641021  RH  055%=      5-min Rain = 0
KTAS 171129Z 29009KT 06/M02 A3014 RMK A01 T00631021  RH  055%=      5-min Rain = 0
KTAS 171130Z 29009KT 06/M02 A3014 RMK A01 T00621021  RH  055%=      5-min Rain = 0
KTAS 171131Z 29009KT 06/M02 A3014 RMK A01 T00611021  RH  056%=      5-min Rain = 0
KTAS 171132Z 28009KT 06/M02 A3014 RMK A01 T00611020  RH  056%=      5-min Rain = 0
KTAS 171133Z 28009KT 06/M02 A3014 RMK A01 T00611020  RH  056%=      5-min Rain = 0
KTAS 171134Z 28008KT 06/M02 A3014 RMK A01 T00611020  RH  056%=      5-min Rain = 0
KTAS 171135Z 29009KT 06/M02 A3014 RMK A01 T00601020  RH  056%=      5-min Rain = 0
KTAS 171136Z 29009KT 06/M02 A3014 RMK A01 T00601021  RH  056%=      5-min Rain = 0
KTAS 171137Z 29008KT 06/M02 A3014 RMK A01 T00591020  RH  057%=      5-min Rain = 0
KTAS 171138Z 30009KT 06/M02 A3014 RMK A01 T00601020  RH  057%=      5-min Rain = 0
KTAS 171139Z 29009KT 06/M02 A3014 RMK A01 T00601020  RH  057%=      5-min Rain = 0
KTAS 171140Z 29009KT 06/M02 A3013 RMK A01 T00601020  RH  057%=      5-min Rain = 0
KTAS 171141Z 28009KT 06/M02 A3013 RMK A01 T00591020  RH  057%=      5-min Rain = 0
KTAS 171142Z 29009KT 06/M02 A3014 RMK A01 T00581020  RH  057%=      5-min Rain = 0
KTAS 171143Z 28009KT 06/M02 A3014 RMK A01 T00581020  RH  057%=      5-min Rain = 0
KTAS 171144Z 28009KT 06/M02 A3014 RMK A01 T00591019  RH  057%=      5-min Rain = 0
KTAS 171145Z 28009KT 06/M02 A3014 RMK A01 T00601019  RH  057%=      5-min Rain = 0
KTAS 171146Z 28009KT 06/M02 A3014 RMK A01 T00601019  RH  057%=      5-min Rain = 0
KTAS 171147Z 29008KT 06/M02 A3014 RMK A01 T00601019  RH  057%=      5-min Rain = 0
KTAS 171148Z 30007KT 06/M02 A3014 RMK A01 T00601019  RH  057%=      5-min Rain = 0
KTAS 171149Z 30007KT 06/M02 A3014 RMK A01 T00601020  RH  057%=      5-min Rain = 0
KTAS 171150Z 29008KT 06/M02 A3014 RMK A01 T00601020  RH  057%=      5-min Rain = 0
KTAS 171151Z 29008KT 06/M02 A3014 RMK A01 T00601020  RH  057%=      5-min Rain = 0
KTAS 171152Z 29008KT 06/M02 A3014 RMK A01 T00601020  RH  057%=      5-min Rain = 0
KTAS 171153Z 29009KT 06/M02 A3014 RMK A01 T00601019  RH  057%=      5-min Rain = 0
KTAS 171154Z 29009KT 06/M02 A3014 RMK A01 T00601019  RH  057%=      5-min Rain = 0
KTAS 171155Z 29009KT 06/M02 A3014 RMK A01 T00611019  RH  057%=      5-min Rain = 0
KTAS 171156Z 29009KT 06/M02 A3014 RMK A01 T00611019  RH  056%=      5-min Rain = 0
KTAS 171157Z 29009KT 06/M02 A3014 RMK A01 T00611019  RH  056%=      5-min Rain = 0
KTAS 171158Z 28009KT 06/M02 A3014 RMK A01 T00611019  RH  057%=      5-min Rain = 0
KTAS 171159Z 28009KT 06/M02 A3014 RMK A01 T00611019  RH  057%=      5-min Rain = 0
KTAS 171200Z 28008KT 06/M02 A3014 RMK A01 T00611019  RH  057%=      5-min Rain = 0
KTAS 171201Z 28008KT 06/M02 A3014 RMK A01 T00601019  RH  057%=      5-min Rain = 0
KTAS 171202Z 28008KT 06/M02 A3015 RMK A01 T00601019  RH  057%=      5-min Rain = 0
KTAS 171203Z 27007KT 06/M02 A3015 RMK A01 T00591020  RH  057%=      5-min Rain = 0
KTAS 171204Z 27007KT 06/M02 A3015 RMK A01 T00581020  RH  057%=      5-min Rain = 0
KTAS 171205Z 27008KT 06/M02 A3015 RMK A01 T00581020  RH  057%=      5-min Rain = 0
KTAS 171206Z 28008KT 06/M02 A3015 RMK A01 T00571020  RH  058%=      5-min Rain = 0
KTAS 171207Z 28008KT 06/M02 A3015 RMK A01 T00571020  RH  058%=      5-min Rain = 0
KTAS 171208Z 27008KT 06/M02 A3015 RMK A01 T00571019  RH  058%=      5-min Rain = 0
KTAS 171209Z 27008KT 06/M02 A3015 RMK A01 T00571019  RH  058%=      5-min Rain = 0
KTAS 171210Z 28008KT 06/M02 A3015 RMK A01 T00571019  RH  058%=      5-min Rain = 0
KTAS 171211Z 27008KT 06/M02 A3015 RMK A01 T00571019  RH  058%=      5-min Rain = 0
KTAS 171212Z 28008KT 06/M02 A3015 RMK A01 T00581019  RH  058%=      5-min Rain = 0
KTAS 171213Z 28007KT 06/M02 A3015 RMK A01 T00581018  RH  058%=      5-min Rain = 0
KTAS 171214Z 27008KT 06/M02 A3015 RMK A01 T00581018  RH  058%=      5-min Rain = 0
KTAS 171215Z 27007KT 06/M02 A3015 RMK A01 T00581018  RH  058%=      5-min Rain = 0
KTAS 171216Z 27008KT 06/M02 A3015 RMK A01 T00591018  RH  058%=      5-min Rain = 0
KTAS 171217Z 27007KT 06/M02 A3015 RMK A01 T00591017  RH  058%=      5-min Rain = 0
KTAS 171218Z 27007KT 06/M02 A3015 RMK A01 T00591017  RH  058%=      5-min Rain = 0
KTAS 171219Z 26006KT 06/M02 A3015 RMK A01 T00591018  RH  058%=      5-min Rain = 0
KTAS 171220Z 27007KT 06/M02 A3015 RMK A01 T00591018  RH  058%=      5-min Rain = 0
KTAS 171221Z 27007KT 06/M02 A3015 RMK A01 T00591018  RH  058%=      5-min Rain = 0
KTAS 171222Z 27006KT 06/M02 A3015 RMK A01 T00601018  RH  057%=      5-min Rain = 0
KTAS 171223Z 27006KT 06/M02 A3015 RMK A01 T00591018  RH  057%=      5-min Rain = 0
KTAS 171224Z 28006KT 06/M02 A3015 RMK A01 T00591018  RH  058%=      5-min Rain = 0
KTAS 171225Z 27006KT 06/M02 A3015 RMK A01 T00591018  RH  058%=      5-min Rain = 0
KTAS 171226Z 27006KT 06/M02 A3015 RMK A01 T00581019  RH  058%=      5-min Rain = 0
KTAS 171227Z 27006KT 06/M02 A3015 RMK A01 T00571019  RH  058%=      5-min Rain = 0
KTAS 171228Z 27006KT 06/M02 A3015 RMK A01 T00571018  RH  058%=      5-min Rain = 0
KTAS 171229Z 27007KT 06/M02 A3015 RMK A01 T00571018  RH  058%=      5-min Rain = 0
KTAS 171230Z 27007KT 06/M02 A3015 RMK A01 T00571018  RH  058%=      5-min Rain = 0
KTAS 171231Z 27007KT 06/M02 A3015 RMK A01 T00571018  RH  058%=      5-min Rain = 0
KTAS 171232Z 28007KT 06/M02 A3015 RMK A01 T00571018  RH  059%=      5-min Rain = 0
KTAS 171233Z 28007KT 06/M02 A3015 RMK A01 T00571018  RH  058%=      5-min Rain = 0
KTAS 171234Z 28007KT 06/M02 A3015 RMK A01 T00571018  RH  058%=      5-min Rain = 0
KTAS 171235Z 29007KT 06/M02 A3015 RMK A01 T00561018  RH  059%=      5-min Rain = 0
KTAS 171236Z 29007KT 06/M02 A3015 RMK A01 T00561018  RH  059%=      5-min Rain = 0
KTAS 171237Z 28008KT 06/M02 A3015 RMK A01 T00561019  RH  059%=      5-min Rain = 0
KTAS 171238Z 29008KT 06/M02 A3015 RMK A01 T00551019  RH  059%=      5-min Rain = 0
KTAS 171239Z 29008KT 05/M02 A3015 RMK A01 T00541019  RH  059%=      5-min Rain = 0
KTAS 171240Z 29008KT 05/M02 A3015 RMK A01 T00541019  RH  060%=      5-min Rain = 0
KTAS 171241Z 29008KT 05/M02 A3015 RMK A01 T00531019  RH  060%=      5-min Rain = 0
KTAS 171242Z 29007KT 05/M02 A3015 RMK A01 T00531019  RH  060%=      5-min Rain = 0
KTAS 171243Z 29008KT 05/M02 A3015 RMK A01 T00521020  RH  060%=      5-min Rain = 0
KTAS 171244Z 29008KT 05/M02 A3015 RMK A01 T00521019  RH  060%=      5-min Rain = 0
KTAS 171245Z 29009KT 05/M02 A3015 RMK A01 T00521018  RH  061%=      5-min Rain = 0
KTAS 171246Z 29009KT 05/M02 A3015 RMK A01 T00531017  RH  060%=      5-min Rain = 0
KTAS 171247Z 29009KT 05/M02 A3015 RMK A01 T00531017  RH  060%=      5-min Rain = 0
KTAS 171248Z 29009KT 05/M02 A3015 RMK A01 T00541017  RH  060%=      5-min Rain = 0
KTAS 171249Z 30008KT 05/M02 A3015 RMK A01 T00541017  RH  060%=      5-min Rain = 0
KTAS 171250Z 30007KT 05/M02 A3015 RMK A01 T00541018  RH  060%=      5-min Rain = 0
KTAS 171251Z 31008KT 05/M02 A3015 RMK A01 T00531018  RH  060%=      5-min Rain = 0
KTAS 171252Z 31008KT 05/M02 A3015 RMK A01 T00531018  RH  060%=      5-min Rain = 0
KTAS 171253Z 31007KT 05/M02 A3015 RMK A01 T00531018  RH  060%=      5-min Rain = 0
KTAS 171254Z 31008KT 05/M02 A3015 RMK A01 T00531018  RH  060%=      5-min Rain = 0
KTAS 171255Z 30008KT 05/M02 A3015 RMK A01 T00531018  RH  060%=      5-min Rain = 0
KTAS 171256Z 30009KT 05/M02 A3015 RMK A01 T00541018  RH  060%=      5-min Rain = 0
KTAS 171257Z 30009KT 05/M02 A3015 RMK A01 T00541018  RH  060%=      5-min Rain = 0
KTAS 171258Z 30009KT 05/M02 A3015 RMK A01 T00541017  RH  060%=      5-min Rain = 0
KTAS 171259Z 30008KT 05/M02 A3015 RMK A01 T00541018  RH  060%=      5-min Rain = 0
KTAS 171300Z 30009KT 06/M02 A3015 RMK A01 T00551018  RH  060%=      5-min Rain = 0
KTAS 171301Z 30008KT 05/M02 A3015 RMK A01 T00541018  RH  060%=      5-min Rain = 0
KTAS 171302Z 30008KT 05/M02 A3015 RMK A01 T00541019  RH  060%=      5-min Rain = 0
KTAS 171303Z 31008KT 05/M02 A3016 RMK A01 T00541018  RH  060%=      5-min Rain = 0
KTAS 171304Z 31007KT 05/M02 A3016 RMK A01 T00531019  RH  060%=      5-min Rain = 0
KTAS 171305Z 30007KT 05/M02 A3016 RMK A01 T00511021  RH  060%=      5-min Rain = 0
KTAS 171306Z 30007KT 05/M02 A3016 RMK A01 T00491022  RH  060%=      5-min Rain = 0
KTAS 171307Z 30007KT 05/M02 A3016 RMK A01 T00471022  RH  061%=      5-min Rain = 0
KTAS 171308Z 30006KT 05/M02 A3016 RMK A01 T00451023  RH  061%=      5-min Rain = 0
KTAS 171309Z 30006KT 04/M02 A3016 RMK A01 T00441023  RH  062%=      5-min Rain = 0
KTAS 171310Z 30006KT 04/M02 A3016 RMK A01 T00431024  RH  062%=      5-min Rain = 0
KTAS 171311Z 30006KT 04/M02 A3017 RMK A01 T00431023  RH  062%=      5-min Rain = 0
KTAS 171312Z 30006KT 04/M02 A3017 RMK A01 T00431023  RH  062%=      5-min Rain = 0
KTAS 171313Z 30006KT 04/M02 A3017 RMK A01 T00421023  RH  062%=      5-min Rain = 0
KTAS 171314Z 30006KT 04/M02 A3017 RMK A01 T00411024  RH  063%=      5-min Rain = 0
KTAS 171315Z 29006KT 04/M02 A3017 RMK A01 T00401024  RH  063%=      5-min Rain = 0
KTAS 171316Z 29006KT 04/M03 A3017 RMK A01 T00391025  RH  063%=      5-min Rain = 0
KTAS 171317Z 29006KT 04/M03 A3017 RMK A01 T00381025  RH  063%=      5-min Rain = 0
KTAS 171318Z 28006KT 04/M03 A3017 RMK A01 T00371025  RH  064%=      5-min Rain = 0
KTAS 171319Z 28006KT 04/M03 A3017 RMK A01 T00361025  RH  064%=      5-min Rain = 0
KTAS 171320Z 29006KT 04/M03 A3017 RMK A01 T00351025  RH  065%=      5-min Rain = 0
KTAS 171321Z 29006KT 04/M03 A3017 RMK A01 T00351025  RH  065%=      5-min Rain = 0
KTAS 171322Z 29006KT 03/M03 A3017 RMK A01 T00341025  RH  065%=      5-min Rain = 0
KTAS 171323Z 29006KT 03/M03 A3017 RMK A01 T00331026  RH  065%=      5-min Rain = 0
KTAS 171324Z 28006KT 03/M03 A3017 RMK A01 T00331026  RH  065%=      5-min Rain = 0
KTAS 171325Z 28006KT 03/M03 A3017 RMK A01 T00331025  RH  066%=      5-min Rain = 0
KTAS 171326Z 28007KT 03/M02 A3018 RMK A01 T00331024  RH  066%=      5-min Rain = 0
KTAS 171327Z 28007KT 03/M02 A3018 RMK A01 T00331024  RH  066%=      5-min Rain = 0
KTAS 171328Z 28007KT 03/M02 A3018 RMK A01 T00331024  RH  066%=      5-min Rain = 0
KTAS 171329Z 28007KT 03/M02 A3018 RMK A01 T00331024  RH  066%=      5-min Rain = 0
KTAS 171330Z 28007KT 03/M02 A3018 RMK A01 T00331024  RH  066%=      5-min Rain = 0
KTAS 171331Z 28007KT 03/M03 A3018 RMK A01 T00321025  RH  066%=      5-min Rain = 0
KTAS 171332Z 28007KT 03/M03 A3018 RMK A01 T00321025  RH  066%=      5-min Rain = 0
KTAS 171333Z 28007KT 03/M03 A3018 RMK A01 T00321025  RH  067%=      5-min Rain = 0
KTAS 171334Z 28007KT 03/M03 A3018 RMK A01 T00311025  RH  067%=      5-min Rain = 0
KTAS 171335Z 28007KT 03/M03 A3018 RMK A01 T00301025  RH  067%=      5-min Rain = 0
KTAS 171336Z 28007KT 03/M03 A3018 RMK A01 T00301025  RH  067%=      5-min Rain = 0
KTAS 171337Z 27006KT 03/M03 A3018 RMK A01 T00301025  RH  067%=      5-min Rain = 0
KTAS 171338Z 27006KT 03/M03 A3018 RMK A01 T00291025  RH  067%=      5-min Rain = 0
KTAS 171339Z 27006KT 03/M03 A3018 RMK A01 T00291025  RH  067%=      5-min Rain = 0
KTAS 171340Z 27006KT 03/M03 A3018 RMK A01 T00291025  RH  068%=      5-min Rain = 0
KTAS 171341Z 27006KT 03/M03 A3019 RMK A01 T00291025  RH  068%=      5-min Rain = 0
KTAS 171342Z 27006KT 03/M02 A3019 RMK A01 T00301024  RH  068%=      5-min Rain = 0
KTAS 171343Z 27006KT 03/M02 A3019 RMK A01 T00301024  RH  068%=      5-min Rain = 0
KTAS 171344Z 27006KT 03/M02 A3019 RMK A01 T00301023  RH  068%=      5-min Rain = 0
KTAS 171345Z 27006KT 03/M02 A3019 RMK A01 T00311023  RH  068%=      5-min Rain = 0
KTAS 171346Z 27007KT 03/M02 A3019 RMK A01 T00311023  RH  068%=      5-min Rain = 0
KTAS 171347Z 28007KT 03/M02 A3019 RMK A01 T00311023  RH  068%=      5-min Rain = 0
KTAS 171348Z 28007KT 03/M02 A3018 RMK A01 T00311023  RH  068%=      5-min Rain = 0
KTAS 171349Z 28007KT 03/M02 A3018 RMK A01 T00311023  RH  068%=      5-min Rain = 0
KTAS 171350Z 28008KT 03/M02 A3018 RMK A01 T00311023  RH  068%=      5-min Rain = 0
KTAS 171351Z 28008KT 03/M02 A3018 RMK A01 T00301024  RH  068%=      5-min Rain = 0
KTAS 171352Z 28007KT 03/M02 A3018 RMK A01 T00301024  RH  068%=      5-min Rain = 0
KTAS 171353Z 28007KT 03/M02 A3018 RMK A01 T00301024  RH  068%=      5-min Rain = 0
KTAS 171354Z 28007KT 03/M02 A3018 RMK A01 T00291024  RH  068%=      5-min Rain = 0
KTAS 171355Z 28007KT 03/M02 A3018 RMK A01 T00291024  RH  068%=      5-min Rain = 0
KTAS 171356Z 29007KT 03/M02 A3018 RMK A01 T00281024  RH  068%=      5-min Rain = 0
KTAS 171357Z 29007KT 03/M02 A3018 RMK A01 T00291023  RH  069%=      5-min Rain = 0
KTAS 171358Z 28007KT 03/M02 A3019 RMK A01 T00281023  RH  069%=      5-min Rain = 0
KTAS 171359Z 28007KT 03/M02 A3019 RMK A01 T00281023  RH  069%=      5-min Rain = 0
KTAS 171400Z 28007KT 03/M02 A3019 RMK A01 T00281023  RH  069%=      5-min Rain = 0
KTAS 171401Z 28008KT 03/M02 A3019 RMK A01 T00291022  RH  069%=      5-min Rain = 0
KTAS 171402Z 28008KT 03/M02 A3019 RMK A01 T00291022  RH  069%=      5-min Rain = 0
KTAS 171403Z 29008KT 03/M02 A3019 RMK A01 T00301020  RH  069%=      5-min Rain = 0
KTAS 171404Z 29007KT 03/M02 A3019 RMK A01 T00311019  RH  069%=      5-min Rain = 0
KTAS 171405Z 29008KT 03/M02 A3019 RMK A01 T00321019  RH  069%=      5-min Rain = 0
KTAS 171406Z 29008KT 03/M02 A3019 RMK A01 T00341018  RH  069%=      5-min Rain = 0
KTAS 171407Z 29008KT 04/M02 A3019 RMK A01 T00351018  RH  069%=      5-min Rain = 0
KTAS 171408Z 28008KT 04/M02 A3019 RMK A01 T00361017  RH  068%=      5-min Rain = 0
KTAS 171409Z 28008KT 04/M02 A3019 RMK A01 T00361017  RH  068%=      5-min Rain = 0
KTAS 171410Z 28008KT 04/M02 A3019 RMK A01 T00371017  RH  068%=      5-min Rain = 0
KTAS 171411Z 28008KT 04/M02 A3019 RMK A01 T00371017  RH  068%=      5-min Rain = 0
KTAS 171412Z 28008KT 04/M02 A3019 RMK A01 T00381016  RH  068%=      5-min Rain = 0
KTAS 171413Z 28008KT 04/M02 A3019 RMK A01 T00391016  RH  067%=      5-min Rain = 0
KTAS 171414Z 28008KT 04/M02 A3019 RMK A01 T00391016  RH  067%=      5-min Rain = 0
KTAS 171415Z 28008KT 04/M02 A3019 RMK A01 T00401016  RH  067%=      5-min Rain = 0
KTAS 171416Z 28008KT 04/M02 A3019 RMK A01 T00401015  RH  067%=      5-min Rain = 0
KTAS 171417Z 28008KT 04/M02 A3019 RMK A01 T00411015  RH  067%=      5-min Rain = 0
KTAS 171418Z 28008KT 04/M02 A3018 RMK A01 T00421015  RH  067%=      5-min Rain = 0
KTAS 171419Z 29008KT 04/M01 A3018 RMK A01 T00421014  RH  067%=      5-min Rain = 0
KTAS 171420Z 28008KT 04/M01 A3018 RMK A01 T00431014  RH  066%=      5-min Rain = 0
KTAS 171421Z 29008KT 04/M01 A3018 RMK A01 T00441014  RH  066%=      5-min Rain = 0
KTAS 171422Z 28009KT 05/M01 A3018 RMK A01 T00451014  RH  065%=      5-min Rain = 0
KTAS 171423Z 29009KT 05/M01 A3018 RMK A01 T00461014  RH  065%=      5-min Rain = 0
KTAS 171424Z 29009KT 05/M01 A3018 RMK A01 T00471014  RH  065%=      5-min Rain = 0
KTAS 171425Z 29009KT 05/M01 A3018 RMK A01 T00481014  RH  064%=      5-min Rain = 0
KTAS 171426Z 29009KT 05/M01 A3018 RMK A01 T00481014  RH  064%=      5-min Rain = 0
KTAS 171427Z 29009KT 05/M01 A3018 RMK A01 T00491014  RH  064%=      5-min Rain = 0
KTAS 171428Z 29008KT 05/M01 A3018 RMK A01 T00501014  RH  064%=      5-min Rain = 0
KTAS 171429Z 30008KT 05/M01 A3018 RMK A01 T00501014  RH  063%=      5-min Rain = 0
KTAS 171430Z 30007KT 05/M01 A3018 RMK A01 T00511013  RH  063%=      5-min Rain = 0
KTAS 171431Z 31007KT 05/M01 A3018 RMK A01 T00521013  RH  063%=      5-min Rain = 0
KTAS 171432Z 31007KT 05/M01 A3018 RMK A01 T00531012  RH  063%=      5-min Rain = 0
KTAS 171433Z 31006KT 05/M01 A3018 RMK A01 T00541012  RH  063%=      5-min Rain = 0
KTAS 171434Z 31007KT 06/M01 A3018 RMK A01 T00551012  RH  062%=      5-min Rain = 0
KTAS 171435Z 31007KT 06/M01 A3018 RMK A01 T00561012  RH  062%=      5-min Rain = 0
KTAS 171436Z 30006KT 06/M01 A3018 RMK A01 T00571012  RH  061%=      5-min Rain = 0
KTAS 171437Z 30006KT 06/M01 A3018 RMK A01 T00571011  RH  061%=      5-min Rain = 0
KTAS 171438Z 30006KT 06/M01 A3019 RMK A01 T00581011  RH  061%=      5-min Rain = 0
KTAS 171439Z 31006KT 06/M01 A3019 RMK A01 T00591011  RH  061%=      5-min Rain = 0
KTAS 171440Z 31007KT 06/M01 A3019 RMK A01 T00591012  RH  060%=      5-min Rain = 0
KTAS 171441Z 31006KT 06/M01 A3019 RMK A01 T00601012  RH  060%=      5-min Rain = 0
KTAS 171442Z 30006KT 06/M01 A3019 RMK A01 T00601012  RH  060%=      5-min Rain = 0
KTAS 171443Z 30006KT 06/M01 A3019 RMK A01 T00601011  RH  060%=      5-min Rain = 0
KTAS 171444Z 31007KT 06/M01 A3019 RMK A01 T00601012  RH  060%=      5-min Rain = 0
KTAS 171445Z 31006KT 06/M01 A3019 RMK A01 T00601012  RH  060%=      5-min Rain = 0
KTAS 171446Z 31006KT 06/M01 A3019 RMK A01 T00601012  RH  060%=      5-min Rain = 0
KTAS 171447Z 30006KT 06/M01 A3019 RMK A01 T00601012  RH  060%=      5-min Rain = 0
KTAS 171448Z 30007KT 06/M01 A3019 RMK A01 T00601012  RH  060%=      5-min Rain = 0
KTAS 171449Z 30007KT 06/M01 A3019 RMK A01 T00611011  RH  060%=      5-min Rain = 0
KTAS 171450Z 30008KT 06/M01 A3019 RMK A01 T00621011  RH  060%=      5-min Rain = 0
KTAS 171451Z 30007KT 06/M01 A3019 RMK A01 T00621011  RH  060%=      5-min Rain = 0
KTAS 171452Z 29007KT 06/M01 A3019 RMK A01 T00631010  RH  059%=      5-min Rain = 0
KTAS 171453Z 30008KT 06/M01 A3019 RMK A01 T00641010  RH  059%=      5-min Rain = 0
KTAS 171454Z 29007KT 06/M01 A3019 RMK A01 T00641011  RH  059%=      5-min Rain = 0
KTAS 171455Z 30007KT 07/M01 A3019 RMK A01 T00651009  RH  059%=      5-min Rain = 0
KTAS 171456Z 30007KT 07/M01 A3019 RMK A01 T00661010  RH  058%=      5-min Rain = 0
KTAS 171457Z 30007KT 07/M01 A3019 RMK A01 T00661009  RH  058%=      5-min Rain = 0
KTAS 171458Z 31007KT 07/M01 A3019 RMK A01 T00671009  RH  058%=      5-min Rain = 0
KTAS 171459Z 31006KT 07/M01 A3019 RMK A01 T00681009  RH  058%=      5-min Rain = 0
KTAS 171500Z 31008KT 07/M01 A3019 RMK A01 T00681009  RH  058%=      5-min Rain = 0
KTAS 171501Z 30007KT 07/M01 A3019 RMK A01 T00691009  RH  058%=      5-min Rain = 0
KTAS 171502Z 31007KT 07/M01 A3019 RMK A01 T00691010  RH  057%=      5-min Rain = 0
KTAS 171503Z 30008KT 07/M01 A3019 RMK A01 T00701009  RH  057%=      5-min Rain = 0
KTAS 171504Z 31008KT 07/M01 A3019 RMK A01 T00701009  RH  057%=      5-min Rain = 0
KTAS 171505Z 31008KT 07/M01 A3019 RMK A01 T00701010  RH  057%=      5-min Rain = 0
KTAS 171506Z 31008KT 07/M01 A3019 RMK A01 T00701010  RH  057%=      5-min Rain = 0
KTAS 171507Z 31008KT 07/M01 A3019 RMK A01 T00701009  RH  057%=      5-min Rain = 0
KTAS 171508Z 31009KT 07/M01 A3019 RMK A01 T00711009  RH  057%=      5-min Rain = 0
KTAS 171509Z 30008KT 07/M01 A3019 RMK A01 T00711009  RH  056%=      5-min Rain = 0
KTAS 171510Z 31007KT 07/M01 A3019 RMK A01 T00731007  RH  057%=      5-min Rain = 0
KTAS 171511Z 31007KT 07/M01 A3019 RMK A01 T00741007  RH  056%=      5-min Rain = 0
KTAS 171512Z 31008KT 08/M01 A3019 RMK A01 T00761007  RH  056%=      5-min Rain = 0
KTAS 171513Z 31009KT 08/M01 A3019 RMK A01 T00771007  RH  056%=      5-min Rain = 0
KTAS 171514Z 31010KT 08/M01 A3019 RMK A01 T00761009  RH  055%=      5-min Rain = 0
KTAS 171515Z 31009KT 08/M01 A302 RMK A01 T00761009  RH  055%=      5-min Rain = 0
KTAS 171516Z 31008KT 08/M01 A302 RMK A01 T00771008  RH  055%=      5-min Rain = 0
KTAS 171517Z 30010KT 08/M01 A302 RMK A01 T00781008  RH  055%=      5-min Rain = 0
KTAS 171518Z 30010KT 08/M01 A302 RMK A01 T00791007  RH  055%=      5-min Rain = 0
KTAS 171519Z 31010KT 08/M01 A302 RMK A01 T00791007  RH  054%=      5-min Rain = 0
KTAS 171520Z 31009KT 08/M01 A302 RMK A01 T00801007  RH  054%=      5-min Rain = 0
KTAS 171521Z 31009KT 08/M01 A302 RMK A01 T00821006  RH  054%=      5-min Rain = 0
KTAS 171522Z 31010KT 08/M01 A302 RMK A01 T00831006  RH  053%=      5-min Rain = 0
KTAS 171523Z 31010KT 08/M01 A302 RMK A01 T00821007  RH  053%=      5-min Rain = 0
KTAS 171524Z 31009KT 08/M01 A302 RMK A01 T00831007  RH  053%=      5-min Rain = 0
KTAS 171525Z 30009KT 09/M01 A302 RMK A01 T00851005  RH  053%=      5-min Rain = 0
KTAS 171526Z 30010KT 09/M01 A3019 RMK A01 T00861005  RH  053%=      5-min Rain = 0
KTAS 171527Z 30010KT 09/M01 A3019 RMK A01 T00861008  RH  052%=      5-min Rain = 0
KTAS 171528Z 30010KT 09/M01 A3019 RMK A01 T00851007  RH  052%=      5-min Rain = 0
KTAS 171529Z 31010KT 09/M01 A3019 RMK A01 T00861007  RH  052%=      5-min Rain = 0
KTAS 171530Z 31009KT 09/M01 A3019 RMK A01 T00871006  RH  052%=      5-min Rain = 0
KTAS 171531Z 31009KT 09/M01 A3019 RMK A01 T00901005  RH  052%=      5-min Rain = 0
KTAS 171532Z 31009KT 09/M01 A3019 RMK A01 T00911005  RH  051%=      5-min Rain = 0
KTAS 171533Z 31008KT 09/M00 A3019 RMK A01 T00931004  RH  051%=      5-min Rain = 0
KTAS 171534Z 31010KT 09/M01 A3019 RMK A01 T00931006  RH  050%=      5-min Rain = 0
KTAS 171535Z 30010KT 09/M01 A3019 RMK A01 T00931007  RH  050%=      5-min Rain = 0
KTAS 171536Z 30008KT 09/M01 A3019 RMK A01 T00941005  RH  050%=      5-min Rain = 0
KTAS 171537Z 31010KT 10/M01 A302 RMK A01 T00951005  RH  049%=      5-min Rain = 0
KTAS 171538Z 31011KT 10/M01 A302 RMK A01 T00961007  RH  049%=      5-min Rain = 0
KTAS 171539Z 30010KT 10/M01 A302 RMK A01 T00961006  RH  049%=      5-min Rain = 0
KTAS 171540Z 30010KT 10/M01 A302 RMK A01 T00971006  RH  049%=      5-min Rain = 0
KTAS 171541Z 31011KT 10/M01 A302 RMK A01 T00971006  RH  049%=      5-min Rain = 0
KTAS 171542Z 31011KT 10/M01 A302 RMK A01 T00971007  RH  048%=      5-min Rain = 0
KTAS 171543Z 31010KT 10/M01 A302 RMK A01 T00981006  RH  049%=      5-min Rain = 0
KTAS 171544Z 31011KT 10/M01 A302 RMK A01 T01001006  RH  048%=      5-min Rain = 0
KTAS 171545Z 31010KT 10/M01 A302 RMK A01 T01011005  RH  048%=      5-min Rain = 0
KTAS 171546Z 30011KT 10/M01 A302 RMK A01 T01021005  RH  047%=      5-min Rain = 0
KTAS 171547Z 30011KT 10/M01 A302 RMK A01 T01021007  RH  047%=      5-min Rain = 0
KTAS 171548Z 31010KT 10/M01 A302 RMK A01 T01021006  RH  047%=      5-min Rain = 0
KTAS 171549Z 31009KT 10/M01 A3021 RMK A01 T01031005  RH  047%=      5-min Rain = 0
KTAS 171550Z 31010KT 10/M01 A3021 RMK A01 T01041005  RH  047%=      5-min Rain = 0
KTAS 171551Z 31011KT 10/M01 A3021 RMK A01 T01041006  RH  046%=      5-min Rain = 0
KTAS 171552Z 31009KT 10/M01 A3021 RMK A01 T01031006  RH  047%=      5-min Rain = 0
KTAS 171553Z 31009KT 11/M00 A3021 RMK A01 T01051004  RH  047%=      5-min Rain = 0
KTAS 171554Z 31010KT 11/M00 A3021 RMK A01 T01081002  RH  046%=      5-min Rain = 0
KTAS 171555Z 30011KT 11/M00 A3021 RMK A01 T01091004  RH  046%=      5-min Rain = 0
KTAS 171556Z 30011KT 11/M01 A3021 RMK A01 T01091005  RH  045%=      5-min Rain = 0
KTAS 171557Z 31010KT 11/M00 A3021 RMK A01 T01091004  RH  045%=      5-min Rain = 0
KTAS 171558Z 31010KT 11/M01 A3021 RMK A01 T01091005  RH  045%=      5-min Rain = 0
KTAS 171559Z 31012KT 11/M01 A3021 RMK A01 T01091006  RH  045%=      5-min Rain = 0
KTAS 171600Z 31011KT 11/M01 A3021 RMK A01 T01091006  RH  045%=      5-min Rain = 0
KTAS 171601Z 31010KT 11/M01 A3021 RMK A01 T01101005  RH  045%=      5-min Rain = 0
KTAS 171602Z 31012KT 11/M01 A3021 RMK A01 T01101005  RH  045%=      5-min Rain = 0
KTAS 171603Z 30011KT 11/M01 A3021 RMK A01 T01101007  RH  044%=      5-min Rain = 0
KTAS 171604Z 31011KT 11/M01 A3022 RMK A01 T01101006  RH  045%=      5-min Rain = 0
KTAS 171605Z 30010KT 11/M01 A3022 RMK A01 T01111005  RH  045%=      5-min Rain = 0
KTAS 171606Z 31011KT 11/M01 A3022 RMK A01 T01111007  RH  044%=      5-min Rain = 0
KTAS 171607Z 31009KT 11/M01 A3022 RMK A01 T01121005  RH  044%=      5-min Rain = 0
KTAS 171608Z 31008KT 11/M01 A3022 RMK A01 T01131005  RH  044%=      5-min Rain = 0
KTAS 171609Z 31008KT 12/M00 A3022 RMK A01 T01151004  RH  044%=      5-min Rain = 0
KTAS 171610Z 30007KT 12/M00 A3022 RMK A01 T01161002  RH  044%=      5-min Rain = 0
KTAS 171611Z 30010KT 12/M00 A3022 RMK A01 T01191002  RH  043%=      5-min Rain = 0
KTAS 171612Z 31009KT 12/M00 A3022 RMK A01 T01171004  RH  043%=      5-min Rain = 0
KTAS 171613Z 31009KT 12/M00 A3022 RMK A01 T01171004  RH  043%=      5-min Rain = 0
KTAS 171614Z 30010KT 12/M00 A3022 RMK A01 T01181003  RH  043%=      5-min Rain = 0
KTAS 171615Z 30010KT 12/M00 A3022 RMK A01 T01191004  RH  043%=      5-min Rain = 0
KTAS 171616Z 31010KT 12/M01 A3022 RMK A01 T01181005  RH  043%=      5-min Rain = 0
KTAS 171617Z 31010KT 12/M01 A3022 RMK A01 T01171006  RH  043%=      5-min Rain = 0
KTAS 171618Z 31010KT 12/M00 A3022 RMK A01 T01171004  RH  043%=      5-min Rain = 0
KTAS 171619Z 31011KT 12/M01 A3021 RMK A01 T01181006  RH  042%=      5-min Rain = 0
KTAS 171620Z 31011KT 12/M01 A3021 RMK A01 T01181006  RH  043%=      5-min Rain = 0
KTAS 171621Z 31010KT 12/M00 A3021 RMK A01 T01201003  RH  043%=      5-min Rain = 0
KTAS 171622Z 31011KT 12/M01 A3021 RMK A01 T01211005  RH  042%=      5-min Rain = 0
KTAS 171623Z 30011KT 12/M01 A3021 RMK A01 T01211005  RH  042%=      5-min Rain = 0
KTAS 171624Z 30012KT 12/M01 A3021 RMK A01 T01211006  RH  042%=      5-min Rain = 0
KTAS 171625Z 31011KT 12/M01 A3021 RMK A01 T01191007  RH  042%=      5-min Rain = 0
KTAS 171626Z 31011KT 12/M00 A3021 RMK A01 T01211004  RH  042%=      5-min Rain = 0
KTAS 171627Z 31012KT 12/M01 A3021 RMK A01 T01221006  RH  041%=      5-min Rain = 0
KTAS 171628Z 31012KT 12/M01 A3021 RMK A01 T01211006  RH  041%=      5-min Rain = 0
KTAS 171629Z 31010KT 12/M01 A3021 RMK A01 T01231005  RH  041%=      5-min Rain = 0
KTAS 171630Z 32013KT 13/M01 A3021 RMK A01 T01251005  RH  041%=      5-min Rain = 0
KTAS 171631Z 32012KT 12/M01 A3021 RMK A01 T01231006  RH  041%=      5-min Rain = 0
KTAS 171632Z 32010KT 12/M01 A3021 RMK A01 T01231006  RH  041%=      5-min Rain = 0
KTAS 171633Z 32010KT 13/M00 A3021 RMK A01 T01251003  RH  041%=      5-min Rain = 0
KTAS 171634Z 33010KT 13/M00 A3021 RMK A01 T01291002  RH  041%=      5-min Rain = 0
KTAS 171635Z 33011KT 13/M01 A302 RMK A01 T01291005  RH  040%=      5-min Rain = 0
KTAS 171636Z 32009KT 13/M01 A302 RMK A01 T01281005  RH  040%=      5-min Rain = 0
KTAS 171637Z 32009KT 13/M00 A302 RMK A01 T01291004  RH  040%=      5-min Rain = 0
KTAS 171638Z 33010KT 13/M00 A3021 RMK A01 T01321001  RH  040%=      5-min Rain = 0
KTAS 171639Z 32010KT 13/M01 A3021 RMK A01 T01321005  RH  039%=      5-min Rain = 0
KTAS 171640Z 32010KT 13/M01 A3021 RMK A01 T01301006  RH  039%=      5-min Rain = 0
KTAS 171641Z 33011KT 13/M00 A3021 RMK A01 T01301003  RH  040%=      5-min Rain = 0
KTAS 171642Z 33009KT 13/M00 A3021 RMK A01 T01321004  RH  039%=      5-min Rain = 0
KTAS 171643Z 32009KT 13/M00 A3021 RMK A01 T01331004  RH  039%=      5-min Rain = 0
KTAS 171644Z 32010KT 13/M00 A3021 RMK A01 T01331004  RH  039%=      5-min Rain = 0
KTAS 171645Z 32009KT 13/M00 A3021 RMK A01 T01341003  RH  039%=      5-min Rain = 0
KTAS 171646Z 32011KT 13/M01 A3022 RMK A01 T01341006  RH  038%=      5-min Rain = 0
KTAS 171647Z 32010KT 13/M01 A3022 RMK A01 T01341005  RH  038%=      5-min Rain = 0
KTAS 171648Z 31009KT 13/M01 A3022 RMK A01 T01331005  RH  039%=      5-min Rain = 0
KTAS 171649Z 32011KT 14/M01 A3022 RMK A01 T01351005  RH  038%=      5-min Rain = 0
KTAS 171650Z 32009KT 13/M01 A3022 RMK A01 T01341005  RH  038%=      5-min Rain = 0
KTAS 171651Z 32009KT 14/M00 A3022 RMK A01 T01371004  RH  038%=      5-min Rain = 0
KTAS 171652Z 33008KT 14/M00 A3022 RMK A01 T01361004  RH  038%=      5-min Rain = 0
KTAS 171653Z 31009KT 14/M00 A3022 RMK A01 T01381004  RH  038%=      5-min Rain = 0
KTAS 171654Z 32008KT 14/M01 A3022 RMK A01 T01371008  RH  037%=      5-min Rain = 0
KTAS 171655Z 32008KT 14/M01 A3022 RMK A01 T01351006  RH  038%=      5-min Rain = 0
KTAS 171656Z 31009KT 14/M00 A3022 RMK A01 T01371003  RH  038%=      5-min Rain = 0
KTAS 171657Z 33007KT 14/M00 A3022 RMK A01 T01401003  RH  038%=      5-min Rain = 0
KTAS 171658Z 33009KT 14/M00 A3022 RMK A01 T01441002  RH  037%=      5-min Rain = 0
KTAS 171659Z 32009KT 14/M01 A3022 RMK A01 T01431006  RH  036%=      5-min Rain = 0
KTAS 171700Z 31007KT 14/M01 A3022 RMK A01 T01401007  RH  036%=      5-min Rain = 0
KTAS 171701Z 31011KT 14/M01 A3022 RMK A01 T01411006  RH  037%=      5-min Rain = 0
KTAS 171702Z 33009KT 14/M01 A3022 RMK A01 T01431006  RH  036%=      5-min Rain = 0
KTAS 171703Z 33009KT 14/M01 A3022 RMK A01 T01421008  RH  036%=      5-min Rain = 0
KTAS 171704Z 32009KT 14/M01 A3022 RMK A01 T01421007  RH  036%=      5-min Rain = 0
KTAS 171705Z 33008KT 14/M01 A3022 RMK A01 T01441006  RH  036%=      5-min Rain = 0
KTAS 171706Z 33008KT 14/M01 A3022 RMK A01 T01431007  RH  036%=      5-min Rain = 0
KTAS 171707Z 33010KT 14/M01 A3022 RMK A01 T01421006  RH  036%=      5-min Rain = 0
KTAS 171708Z 33009KT 14/M01 A3022 RMK A01 T01421009  RH  035%=      5-min Rain = 0
KTAS 171709Z 33007KT 14/M01 A3021 RMK A01 T01411007  RH  036%=      5-min Rain = 0
KTAS 171710Z 31007KT 14/M01 A3021 RMK A01 T01431005  RH  036%=      5-min Rain = 0
KTAS 171711Z 30009KT 15/M01 A3021 RMK A01 T01451006  RH  035%=      5-min Rain = 0
KTAS 171712Z 30008KT 14/M01 A3021 RMK A01 T01441007  RH  036%=      5-min Rain = 0
KTAS 171713Z 32008KT 15/M01 A3021 RMK A01 T01451007  RH  035%=      5-min Rain = 0
KTAS 171714Z 33008KT 15/M01 A3021 RMK A01 T01461006  RH  035%=      5-min Rain = 0
KTAS 171715Z 33006KT 15/M01 A3021 RMK A01 T01501006  RH  034%=      5-min Rain = 0
KTAS 171716Z 32007KT 15/M01 A3021 RMK A01 T01491007  RH  034%=      5-min Rain = 0
KTAS 171717Z 32008KT 15/M01 A3021 RMK A01 T01471005  RH  035%=      5-min Rain = 0
KTAS 171718Z 32006KT 15/M01 A3021 RMK A01 T01471005  RH  035%=      5-min Rain = 0
KTAS 171719Z 32008KT 15/M01 A3021 RMK A01 T01501006  RH  034%=      5-min Rain = 0
KTAS 171720Z 33006KT 15/M01 A3021 RMK A01 T01521010  RH  033%=      5-min Rain = 0
KTAS 171721Z 33009KT 15/M01 A3021 RMK A01 T01521009  RH  033%=      5-min Rain = 0
KTAS 171722Z 33008KT 15/M01 A3021 RMK A01 T01521010  RH  033%=      5-min Rain = 0
KTAS 171723Z 33005KT 15/M01 A3021 RMK A01 T01511010  RH  033%=      5-min Rain = 0
KTAS 171724Z 31008KT 15/M01 A3021 RMK A01 T01521008  RH  034%=      5-min Rain = 0
KTAS 171725Z 31009KT 15/M01 A3021 RMK A01 T01521010  RH  033%=      5-min Rain = 0
KTAS 171726Z 31007KT 15/M01 A3021 RMK A01 T01501010  RH  033%=      5-min Rain = 0
KTAS 171727Z 31007KT 15/M01 A3021 RMK A01 T01511007  RH  034%=      5-min Rain = 0
KTAS 171728Z 33007KT 15/M01 A3021 RMK A01 T01541008  RH  033%=      5-min Rain = 0
KTAS 171729Z 32005KT 15/M01 A3021 RMK A01 T01541012  RH  032%=      5-min Rain = 0
KTAS 171730Z 31005KT 15/M01 A3021 RMK A01 T01531013  RH  032%=      5-min Rain = 0
KTAS 171731Z 30006KT 16/M01 A3021 RMK A01 T01561006  RH  033%=      5-min Rain = 0
KTAS 171732Z 32006KT 16/M01 A3021 RMK A01 T01581013  RH  031%=      5-min Rain = 0
KTAS 171733Z 31005KT 16/M01 A302 RMK A01 T01571009  RH  032%=      5-min Rain = 0
KTAS 171734Z 31006KT 16/M01 A302 RMK A01 T01601006  RH  032%=      5-min Rain = 0
KTAS 171735Z 32007KT 16/M01 A302 RMK A01 T01591009  RH  032%=      5-min Rain = 0
KTAS 171736Z 31006KT 16/M01 A302 RMK A01 T01561011  RH  032%=      5-min Rain = 0
KTAS 171737Z 30007KT 16/M01 A302 RMK A01 T01571008  RH  032%=      5-min Rain = 0
KTAS 171738Z 29006KT 16/M01 A302 RMK A01 T01551010  RH  032%=      5-min Rain = 0
KTAS 171739Z 31007KT 15/M01 A302 RMK A01 T01531011  RH  033%=      5-min Rain = 0
KTAS 171740Z 32006KT 16/M02 A302 RMK A01 T01551015  RH  031%=      5-min Rain = 0
KTAS 171741Z 30007KT 16/M02 A302 RMK A01 T01571016  RH  030%=      5-min Rain = 0
KTAS 171742Z 31006KT 16/M02 A302 RMK A01 T01571015  RH  031%=      5-min Rain = 0
KTAS 171743Z 32005KT 16/M01 A302 RMK A01 T01571013  RH  031%=      5-min Rain = 0
KTAS 171744Z 33007KT 16/M01 A302 RMK A01 T01581013  RH  031%=      5-min Rain = 0
KTAS 171745Z 33006KT 16/M02 A302 RMK A01 T01591015  RH  030%=      5-min Rain = 0
KTAS 171746Z 31005KT 16/M01 A302 RMK A01 T01591014  RH  031%=      5-min Rain = 0
KTAS 171747Z 31005KT 16/M01 A302 RMK A01 T01601013  RH  031%=      5-min Rain = 0
KTAS 171748Z 30006KT 16/M01 A302 RMK A01 T01601012  RH  031%=      5-min Rain = 0
KTAS 171749Z 29005KT 16/M01 A302 RMK A01 T01611014  RH  030%=      5-min Rain = 0
KTAS 171750Z 30004KT 16/M01 A302 RMK A01 T01611013  RH  030%=      5-min Rain = 0
KTAS 171751Z 30005KT 16/M01 A302 RMK A01 T01621012  RH  031%=      5-min Rain = 0
KTAS 171752Z 32005KT 17/M01 A302 RMK A01 T01661010  RH  030%=      5-min Rain = 0
KTAS 171753Z 30005KT 17/M01 A302 RMK A01 T01671011  RH  030%=      5-min Rain = 0
KTAS 171754Z 30005KT 17/M01 A3019 RMK A01 T01701011  RH  029%=      5-min Rain = 0
KTAS 171755Z 31005KT 17/M01 A3019 RMK A01 T01681012  RH  029%=      5-min Rain = 0
KTAS 171756Z 30005KT 17/M01 A3019 RMK A01 T01711011  RH  029%=      5-min Rain = 0
KTAS 171757Z 30005KT 17/M01 A3019 RMK A01 T01681014  RH  029%=      5-min Rain = 0
KTAS 171758Z 31006KT 17/M01 A3019 RMK A01 T01671013  RH  029%=      5-min Rain = 0
KTAS 171759Z 31006KT 16/M02 A3019 RMK A01 T01641017  RH  029%=      5-min Rain = 0
KTAS 171800Z 31005KT 16/M02 A3019 RMK A01 T01631015  RH  029%=      5-min Rain = 0
KTAS 171801Z 31006KT 17/M01 A3019 RMK A01 T01671014  RH  029%=      5-min Rain = 0
KTAS 171802Z 31006KT 17/M02 A3019 RMK A01 T01681018  RH  028%=      5-min Rain = 0
KTAS 171803Z 30005KT 17/M02 A3019 RMK A01 T01671019  RH  028%=      5-min Rain = 0
KTAS 171804Z 30006KT 17/M02 A3019 RMK A01 T01671017  RH  028%=      5-min Rain = 0
KTAS 171805Z 28004KT 17/M02 A3019 RMK A01 T01671018  RH  028%=      5-min Rain = 0
KTAS 171806Z 31006KT 17/M02 A3019 RMK A01 T01671019  RH  028%=      5-min Rain = 0
KTAS 171807Z 32005KT 17/M02 A3019 RMK A01 T01681022  RH  027%=      5-min Rain = 0
KTAS 171808Z 34005KT 17/M02 A3019 RMK A01 T01671023  RH  027%=      5-min Rain = 0
KTAS 171809Z 01004KT 17/M03 A3019 RMK A01 T01701026  RH  026%=      5-min Rain = 0
KTAS 171810Z 34004KT 17/M03 A3019 RMK A01 T01681027  RH  026%=      5-min Rain = 0
KTAS 171811Z 00003KT 17/M03 A3019 RMK A01 T01701028  RH  026%=      5-min Rain = 0
KTAS 171812Z 02003KT 17/M03 A3018 RMK A01 T01701029  RH  025%=      5-min Rain = 0
KTAS 171813Z 35004KT 17/M03 A3019 RMK A01 T01711031  RH  025%=      5-min Rain = 0
KTAS 171814Z 34002KT 17/M03 A3019 RMK A01 T01711034  RH  024%=      5-min Rain = 0
KTAS 171815Z 34001KT 17/M03 A3019 RMK A01 T01701028  RH  026%=      5-min Rain = 0
KTAS 171816Z 28005KT 17/M02 A3019 RMK A01 T01721023  RH  026%=      5-min Rain = 0
KTAS 171817Z 32003KT 17/M02 A3019 RMK A01 T01731019  RH  027%=      5-min Rain = 0
KTAS 171818Z 31003KT 17/M02 A3019 RMK A01 T01731024  RH  026%=      5-min Rain = 0
KTAS 171819Z 28004KT 17/M02 A3019 RMK A01 T01731024  RH  026%=      5-min Rain = 0
KTAS 171820Z 29004KT 17/M02 A3018 RMK A01 T01731024  RH  026%=      5-min Rain = 0
KTAS 171821Z 31006KT 18/M03 A3018 RMK A01 T01751027  RH  025%=      5-min Rain = 0
KTAS 171822Z 32004KT 17/M03 A3018 RMK A01 T01741029  RH  025%=      5-min Rain = 0
KTAS 171823Z 27005KT 18/M03 A3018 RMK A01 T01751029  RH  025%=      5-min Rain = 0
KTAS 171824Z 25003KT 17/M03 A3018 RMK A01 T01741031  RH  025%=      5-min Rain = 0
KTAS 171825Z 27003KT 17/M03 A3018 RMK A01 T01741030  RH  025%=      5-min Rain = 0
KTAS 171826Z 27003KT 17/M03 A3018 RMK A01 T01741033  RH  024%=      5-min Rain = 0
KTAS 171827Z 29002KT 17/M04 A3018 RMK A01 T01731037  RH  024%=      5-min Rain = 0
KTAS 171828Z 28004KT 17/M04 A3018 RMK A01 T01711035  RH  024%=      5-min Rain = 0
KTAS 171829Z 26005KT 17/M03 A3018 RMK A01 T01721032  RH  025%=      5-min Rain = 0
KTAS 171830Z 26004KT 17/M03 A3018 RMK A01 T01741033  RH  024%=      5-min Rain = 0
KTAS 171831Z 29002KT 17/M04 A3018 RMK A01 T01731035  RH  024%=      5-min Rain = 0
KTAS 171832Z 27003KT 17/M04 A3018 RMK A01 T01731036  RH  024%=      5-min Rain = 0
KTAS 171833Z 25003KT 17/M03 A3018 RMK A01 T01741034  RH  024%=      5-min Rain = 0
KTAS 171834Z 26002KT 18/M03 A3018 RMK A01 T01761034  RH  024%=      5-min Rain = 0
KTAS 171835Z 26003KT 18/M03 A3018 RMK A01 T01771034  RH  023%=      5-min Rain = 0
KTAS 171836Z 27004KT 18/M04 A3017 RMK A01 T01771036  RH  023%=      5-min Rain = 0
KTAS 171837Z 27003KT 18/M04 A3017 RMK A01 T01761041  RH  022%=      5-min Rain = 0
KTAS 171838Z 26002KT 18/M04 A3017 RMK A01 T01761041  RH  022%=      5-min Rain = 0
KTAS 171839Z 20001KT 18/M04 A3017 RMK A01 T01761037  RH  023%=      5-min Rain = 0
KTAS 171840Z 17002KT 18/M04 A3017 RMK A01 T01781042  RH  022%=      5-min Rain = 0
KTAS 171841Z 15002KT 18/M05 A3017 RMK A01 T01791047  RH  021%=      5-min Rain = 0
KTAS 171842Z 11001KT 18/M05 A3017 RMK A01 T01791048  RH  021%=      5-min Rain = 0
KTAS 171843Z 05000KT 18/M05 A3017 RMK A01 T01791048  RH  021%=      5-min Rain = 0
KTAS 171844Z 05000KT 18/M05 A3017 RMK A01 T01791048  RH  021%=      5-min Rain = 0
KTAS 171845Z 29000KT 18/M04 A3017 RMK A01 T01811043  RH  021%=      5-min Rain = 0
KTAS 171846Z 29003KT 18/M04 A3017 RMK A01 T01811041  RH  022%=      5-min Rain = 0
KTAS 171847Z 29002KT 18/M04 A3017 RMK A01 T01811037  RH  022%=      5-min Rain = 0
KTAS 171848Z 28003KT 18/M04 A3017 RMK A01 T01801038  RH  022%=      5-min Rain = 0
KTAS 171849Z 28002KT 18/M04 A3017 RMK A01 T01791037  RH  023%=      5-min Rain = 0
KTAS 171850Z 24001KT 18/M04 A3017 RMK A01 T01791037  RH  023%=      5-min Rain = 0
KTAS 171851Z 21002KT 18/M04 A3017 RMK A01 T01791037  RH  023%=      5-min Rain = 0
KTAS 171852Z 25002KT 18/M03 A3016 RMK A01 T01811034  RH  023%=      5-min Rain = 0
KTAS 171853Z 21003KT 18/M04 A3016 RMK A01 T01831037  RH  022%=      5-min Rain = 0
KTAS 171854Z 22003KT 18/M04 A3016 RMK A01 T01821039  RH  022%=      5-min Rain = 0
KTAS 171855Z 21004KT 18/M04 A3016 RMK A01 T01821038  RH  022%=      5-min Rain = 0
KTAS 171856Z 17003KT 18/M04 A3016 RMK A01 T01831039  RH  022%=      5-min Rain = 0
KTAS 171857Z 19003KT 19/M04 A3016 RMK A01 T01851038  RH  022%=      5-min Rain = 0
KTAS 171858Z 21003KT 19/M04 A3016 RMK A01 T01871039  RH  021%=      5-min Rain = 0
KTAS 171859Z 23002KT 19/M04 A3016 RMK A01 T01871040  RH  021%=      5-min Rain = 0
KTAS 171900Z 21005KT 19/M04 A3016 RMK A01 T01881035  RH  022%=      5-min Rain = 0
KTAS 171901Z 20004KT 19/M04 A3016 RMK A01 T01891040  RH  021%=      5-min Rain = 0
KTAS 171902Z 19005KT 19/M04 A3016 RMK A01 T01871039  RH  021%=      5-min Rain = 0
KTAS 171903Z 19005KT 19/M04 A3016 RMK A01 T01881040  RH  021%=      5-min Rain = 0
KTAS 171904Z 19003KT 19/M04 A3016 RMK A01 T01871043  RH  021%=      5-min Rain = 0
KTAS 171905Z 14002KT 19/M04 A3016 RMK A01 T01861043  RH  021%=      5-min Rain = 0
KTAS 171906Z 26001KT 19/M04 A3016 RMK A01 T01861041  RH  021%=      5-min Rain = 0
KTAS 171907Z 21005KT 19/M04 A3016 RMK A01 T01871041  RH  021%=      5-min Rain = 0
KTAS 171908Z 20006KT 19/M05 A3016 RMK A01 T01881045  RH  020%=      5-min Rain = 0
KTAS 171909Z 20005KT 19/M05 A3016 RMK A01 T01851047  RH  020%=      5-min Rain = 0
KTAS 171910Z 20006KT 19/M05 A3016 RMK A01 T01851047  RH  020%=      5-min Rain = 0
KTAS 171911Z 21006KT 19/M05 A3015 RMK A01 T01851048  RH  020%=      5-min Rain = 0
KTAS 171912Z 21006KT 19/M05 A3015 RMK A01 T01861046  RH  020%=      5-min Rain = 0
KTAS 171913Z 22005KT 19/M05 A3015 RMK A01 T01861045  RH  020%=      5-min Rain = 0
KTAS 171914Z 25004KT 19/M05 A3015 RMK A01 T01851047  RH  020%=      5-min Rain = 0
KTAS 171915Z 25004KT 18/M05 A3015 RMK A01 T01831046  RH  021%=      5-min Rain = 0
KTAS 171916Z 25003KT 18/M05 A3015 RMK A01 T01841047  RH  020%=      5-min Rain = 0
KTAS 171917Z 22002KT 18/M05 A3015 RMK A01 T01831047  RH  021%=      5-min Rain = 0
KTAS 171918Z 21003KT 18/M05 A3015 RMK A01 T01841047  RH  020%=      5-min Rain = 0
KTAS 171919Z 18004KT 19/M05 A3015 RMK A01 T01861046  RH  020%=      5-min Rain = 0
KTAS 171920Z 22004KT 19/M05 A3014 RMK A01 T01871047  RH  020%=      5-min Rain = 0
KTAS 171921Z 22005KT 19/M05 A3014 RMK A01 T01881048  RH  020%=      5-min Rain = 0
KTAS 171922Z 21006KT 19/M05 A3014 RMK A01 T01911046  RH  020%=      5-min Rain = 0
KTAS 171923Z 23006KT 19/M05 A3014 RMK A01 T01921048  RH  019%=      5-min Rain = 0
KTAS 171924Z 24004KT 19/M05 A3014 RMK A01 T01891050  RH  019%=      5-min Rain = 0
KTAS 171925Z 25002KT 19/M05 A3014 RMK A01 T01851051  RH  020%=      5-min Rain = 0
KTAS 171926Z 22004KT 19/M05 A3014 RMK A01 T01851049  RH  020%=      5-min Rain = 0
KTAS 171927Z 20006KT 19/M05 A3014 RMK A01 T01881047  RH  020%=      5-min Rain = 0
KTAS 171928Z 20005KT 19/M05 A3014 RMK A01 T01921046  RH  019%=      5-min Rain = 0
KTAS 171929Z 21006KT 19/M05 A3014 RMK A01 T01941048  RH  019%=      5-min Rain = 0
KTAS 171930Z 21006KT 19/M05 A3014 RMK A01 T01911053  RH  019%=      5-min Rain = 0
KTAS 171931Z 22006KT 19/M05 A3014 RMK A01 T01901052  RH  019%=      5-min Rain = 0
KTAS 171932Z 22003KT 19/M06 A3014 RMK A01 T01871055  RH  019%=      5-min Rain = 0
KTAS 171933Z 22005KT 19/M05 A3014 RMK A01 T01871050  RH  020%=      5-min Rain = 0
KTAS 171934Z 22005KT 19/M05 A3014 RMK A01 T01881051  RH  019%=      5-min Rain = 0
KTAS 171935Z 19005KT 19/M05 A3014 RMK A01 T01891050  RH  019%=      5-min Rain = 0
KTAS 171936Z 19003KT 19/M06 A3014 RMK A01 T01891057  RH  018%=      5-min Rain = 0
KTAS 171937Z 14000KT 19/M06 A3014 RMK A01 T01881057  RH  018%=      5-min Rain = 0
KTAS 171938Z 11001KT 19/M06 A3013 RMK A01 T01891057  RH  018%=      5-min Rain = 0
KTAS 171939Z 14004KT 19/M05 A3013 RMK A01 T01901054  RH  019%=      5-min Rain = 0
KTAS 171940Z 18004KT 19/M05 A3013 RMK A01 T01921049  RH  019%=      5-min Rain = 0
KTAS 171941Z 19003KT 19/M05 A3013 RMK A01 T01941050  RH  019%=      5-min Rain = 0
KTAS 171942Z 22003KT 19/M05 A3013 RMK A01 T01921052  RH  019%=      5-min Rain = 0
KTAS 171943Z 17004KT 19/M05 A3013 RMK A01 T01921048  RH  019%=      5-min Rain = 0
KTAS 171944Z 16004KT 20/M05 A3013 RMK A01 T01951048  RH  019%=      5-min Rain = 0
KTAS 171945Z 15004KT 20/M05 A3013 RMK A01 T02001046  RH  019%=      5-min Rain = 0
KTAS 171946Z 14004KT 20/M05 A3013 RMK A01 T02001050  RH  018%=      5-min Rain = 0
KTAS 171947Z 13004KT 20/M05 A3013 RMK A01 T01981049  RH  018%=      5-min Rain = 0
KTAS 171948Z 21003KT 20/M05 A3013 RMK A01 T01971047  RH  019%=      5-min Rain = 0
KTAS 171949Z 21005KT 20/M05 A3012 RMK A01 T01961050  RH  018%=      5-min Rain = 0
KTAS 171950Z 22006KT 20/M05 A3012 RMK A01 T01971049  RH  019%=      5-min Rain = 0
KTAS 171951Z 22007KT 20/M05 A3012 RMK A01 T01961053  RH  018%=      5-min Rain = 0
KTAS 171952Z 23005KT 19/M05 A3012 RMK A01 T01941053  RH  018%=      5-min Rain = 0
KTAS 171953Z 20005KT 19/M05 A3012 RMK A01 T01931053  RH  019%=      5-min Rain = 0
KTAS 171954Z 18004KT 19/M05 A3012 RMK A01 T01941053  RH  018%=      5-min Rain = 0
KTAS 171955Z 20005KT 19/M05 A3012 RMK A01 T01941052  RH  019%=      5-min Rain = 0
KTAS 171956Z 23005KT 20/M05 A3012 RMK A01 T01951048  RH  019%=      5-min Rain = 0
KTAS 171957Z 25005KT 20/M05 A3012 RMK A01 T01951047  RH  019%=      5-min Rain = 0
KTAS 171958Z 26003KT 19/M05 A3012 RMK A01 T01941046  RH  019%=      5-min Rain = 0
KTAS 171959Z 21003KT 20/M04 A3012 RMK A01 T01951044  RH  019%=      5-min Rain = 0
KTAS 172000Z 16006KT 20/M05 A3012 RMK A01 T01981051  RH  018%=      5-min Rain = 0
KTAS 172001Z 16004KT 20/M06 A3012 RMK A01 T01961058  RH  017%=      5-min Rain = 0
KTAS 172002Z 16005KT 19/M06 A3012 RMK A01 T01931056  RH  018%=      5-min Rain = 0
KTAS 172003Z 17006KT 20/M06 A3012 RMK A01 T01951055  RH  018%=      5-min Rain = 0
KTAS 172004Z 17004KT 19/M06 A3012 RMK A01 T01941058  RH  018%=      5-min Rain = 0
KTAS 172005Z 15004KT 19/M06 A3012 RMK A01 T01941058  RH  018%=      5-min Rain = 0
KTAS 172006Z 21005KT 19/M06 A3012 RMK A01 T01941062  RH  017%=      5-min Rain = 0
KTAS 172007Z 22004KT 19/M07 A3012 RMK A01 T01931065  RH  017%=      5-min Rain = 0
KTAS 172008Z 18005KT 19/M06 A3012 RMK A01 T01921063  RH  017%=      5-min Rain = 0
KTAS 172009Z 21004KT 20/M06 A3012 RMK A01 T01961060  RH  017%=      5-min Rain = 0
KTAS 172010Z 20004KT 20/M06 A3012 RMK A01 T01961061  RH  017%=      5-min Rain = 0
KTAS 172011Z 21001KT 19/M06 A3012 RMK A01 T01941062  RH  017%=      5-min Rain = 0
KTAS 172012Z 21004KT 19/M06 A3012 RMK A01 T01921061  RH  017%=      5-min Rain = 0
KTAS 172013Z 19004KT 19/M06 A3011 RMK A01 T01921060  RH  018%=      5-min Rain = 0
KTAS 172014Z 17003KT 19/M06 A3011 RMK A01 T01931061  RH  017%=      5-min Rain = 0
KTAS 172015Z 15003KT 19/M06 A3011 RMK A01 T01941062  RH  017%=      5-min Rain = 0
KTAS 172016Z 16004KT 19/M06 A3011 RMK A01 T01931062  RH  017%=      5-min Rain = 0
KTAS 172017Z 16004KT 19/M06 A3011 RMK A01 T01931061  RH  017%=      5-min Rain = 0
KTAS 172018Z 13003KT 19/M06 A3011 RMK A01 T01921063  RH  017%=      5-min Rain = 0
KTAS 172019Z 16003KT 19/M06 A3011 RMK A01 T01911062  RH  017%=      5-min Rain = 0
KTAS 172020Z 20005KT 19/M06 A3011 RMK A01 T01941057  RH  018%=      5-min Rain = 0
KTAS 172021Z 20004KT 20/M06 A3011 RMK A01 T01951061  RH  017%=      5-min Rain = 0
KTAS 172022Z 19003KT 19/M06 A3011 RMK A01 T01931062  RH  017%=      5-min Rain = 0
KTAS 172023Z 14003KT 19/M06 A3011 RMK A01 T01931060  RH  018%=      5-min Rain = 0
KTAS 172024Z 12003KT 19/M06 A3011 RMK A01 T01931060  RH  018%=      5-min Rain = 0
KTAS 172025Z 14003KT 19/M06 A3011 RMK A01 T01901059  RH  018%=      5-min Rain = 0
KTAS 172026Z 16004KT 19/M06 A3011 RMK A01 T01901058  RH  018%=      5-min Rain = 0
KTAS 172027Z 22005KT 19/M06 A3011 RMK A01 T01911057  RH  018%=      5-min Rain = 0
KTAS 172028Z 24006KT 19/M06 A3011 RMK A01 T01921057  RH  018%=      5-min Rain = 0
KTAS 172029Z 25005KT 19/M06 A3011 RMK A01 T01911058  RH  018%=      5-min Rain = 0
KTAS 172030Z 26005KT 19/M05 A3011 RMK A01 T01901054  RH  019%=      5-min Rain = 0
KTAS 172031Z 24004KT 19/M06 A3011 RMK A01 T01911058  RH  018%=      5-min Rain = 0
KTAS 172032Z 24002KT 19/M06 A3011 RMK A01 T01901055  RH  018%=      5-min Rain = 0
KTAS 172033Z 25002KT 19/M05 A3011 RMK A01 T01921054  RH  018%=      5-min Rain = 0
KTAS 172034Z 22004KT 19/M06 A3011 RMK A01 T01931055  RH  018%=      5-min Rain = 0
KTAS 172035Z 24005KT 19/M06 A3011 RMK A01 T01921056  RH  018%=      5-min Rain = 0
KTAS 172036Z 22006KT 19/M05 A3011 RMK A01 T01921054  RH  018%=      5-min Rain = 0
KTAS 172037Z 21004KT 19/M06 A3011 RMK A01 T01921057  RH  018%=      5-min Rain = 0
KTAS 172038Z 21003KT 19/M06 A301 RMK A01 T01901056  RH  018%=      5-min Rain = 0
KTAS 172039Z 22004KT 19/M06 A301 RMK A01 T01911056  RH  018%=      5-min Rain = 0
KTAS 172040Z 22003KT 19/M06 A301 RMK A01 T01911057  RH  018%=      5-min Rain = 0
KTAS 172041Z 23004KT 19/M05 A301 RMK A01 T01911053  RH  019%=      5-min Rain = 0
KTAS 172042Z 23003KT 19/M06 A301 RMK A01 T01921055  RH  018%=      5-min Rain = 0
KTAS 172043Z 20003KT 19/M05 A301 RMK A01 T01901053  RH  019%=      5-min Rain = 0
KTAS 172044Z 18002KT 19/M06 A301 RMK A01 T01911055  RH  018%=      5-min Rain = 0
KTAS 172045Z 20006KT 19/M06 A301 RMK A01 T01901055  RH  018%=      5-min Rain = 0
KTAS 172046Z 20003KT 19/M05 A301 RMK A01 T01891054  RH  019%=      5-min Rain = 0
KTAS 172047Z 18002KT 19/M05 A301 RMK A01 T01901053  RH  019%=      5-min Rain = 0
KTAS 172048Z 20003KT 19/M05 A301 RMK A01 T01911052  RH  019%=      5-min Rain = 0
KTAS 172049Z 20003KT 19/M06 A301 RMK A01 T01911055  RH  018%=      5-min Rain = 0
KTAS 172050Z 20001KT 19/M06 A301 RMK A01 T01891055  RH  019%=      5-min Rain = 0
KTAS 172051Z 24002KT 19/M05 A301 RMK A01 T01901052  RH  019%=      5-min Rain = 0
KTAS 172052Z 23003KT 19/M06 A301 RMK A01 T01901055  RH  019%=      5-min Rain = 0
KTAS 172053Z 21003KT 19/M06 A301 RMK A01 T01891055  RH  019%=      5-min Rain = 0
KTAS 172054Z 19005KT 19/M05 A301 RMK A01 T01901050  RH  019%=      5-min Rain = 0
KTAS 172055Z 19005KT 19/M05 A301 RMK A01 T01931053  RH  018%=      5-min Rain = 0
KTAS 172056Z 19004KT 19/M06 A301 RMK A01 T01921055  RH  018%=      5-min Rain = 0
KTAS 172057Z 19003KT 19/M05 A301 RMK A01 T01921054  RH  018%=      5-min Rain = 0
KTAS 172058Z 23002KT 19/M05 A301 RMK A01 T01921053  RH  018%=      5-min Rain = 0
KTAS 172059Z 26002KT 19/M06 A301 RMK A01 T01921055  RH  018%=      5-min Rain = 0
KTAS 172100Z 27002KT 19/M05 A301 RMK A01 T01911054  RH  019%=      5-min Rain = 0
KTAS 172101Z 26002KT 19/M05 A301 RMK A01 T01911053  RH  019%=      5-min Rain = 0
KTAS 172102Z 25001KT 19/M05 A301 RMK A01 T01921051  RH  019%=      5-min Rain = 0
KTAS 172103Z 28002KT 19/M05 A301 RMK A01 T01941049  RH  019%=      5-min Rain = 0
KTAS 172104Z 21002KT 20/M05 A301 RMK A01 T01951051  RH  018%=      5-min Rain = 0
KTAS 172105Z 19004KT 20/M05 A301 RMK A01 T01961053  RH  018%=      5-min Rain = 0
KTAS 172106Z 17003KT 20/M05 A301 RMK A01 T01951050  RH  019%=      5-min Rain = 0
KTAS 172107Z 16005KT 20/M05 A301 RMK A01 T01961049  RH  019%=      5-min Rain = 0
KTAS 172108Z 16005KT 20/M05 A301 RMK A01 T01981048  RH  019%=      5-min Rain = 0
KTAS 172109Z 17006KT 20/M05 A301 RMK A01 T01981050  RH  018%=      5-min Rain = 0
KTAS 172110Z 18005KT 20/M05 A301 RMK A01 T01961050  RH  018%=      5-min Rain = 0
KTAS 172111Z 18005KT 20/M05 A301 RMK A01 T01951048  RH  019%=      5-min Rain = 0
KTAS 172112Z 17006KT 20/M05 A301 RMK A01 T01971048  RH  019%=      5-min Rain = 0
KTAS 172113Z 16006KT 20/M05 A301 RMK A01 T01961049  RH  019%=      5-min Rain = 0
KTAS 172114Z 16006KT 20/M05 A301 RMK A01 T01971048  RH  019%=      5-min Rain = 0
KTAS 172115Z 17005KT 20/M05 A301 RMK A01 T01971050  RH  018%=      5-min Rain = 0
KTAS 172116Z 16006KT 20/M05 A301 RMK A01 T01951049  RH  019%=      5-min Rain = 0
KTAS 172117Z 16005KT 20/M05 A301 RMK A01 T01961048  RH  019%=      5-min Rain = 0
KTAS 172118Z 15002KT 20/M05 A301 RMK A01 T01951049  RH  019%=      5-min Rain = 0
KTAS 172119Z 17004KT 20/M05 A301 RMK A01 T01961046  RH  019%=      5-min Rain = 0
KTAS 172120Z 20003KT 20/M05 A301 RMK A01 T01971048  RH  019%=      5-min Rain = 0
KTAS 172121Z 19001KT 20/M05 A301 RMK A01 T01961050  RH  019%=      5-min Rain = 0
KTAS 172122Z 16002KT 20/M05 A301 RMK A01 T01971048  RH  019%=      5-min Rain = 0
KTAS 172123Z 18006KT 20/M05 A301 RMK A01 T02001046  RH  019%=      5-min Rain = 0
KTAS 172124Z 16007KT 20/M05 A301 RMK A01 T02021049  RH  018%=      5-min Rain = 0
KTAS 172125Z 17007KT 20/M05 A301 RMK A01 T02001048  RH  018%=      5-min Rain = 0
KTAS 172126Z 17007KT 20/M05 A301 RMK A01 T02011047  RH  018%=      5-min Rain = 0
KTAS 172127Z 16007KT 20/M05 A301 RMK A01 T02011050  RH  018%=      5-min Rain = 0
KTAS 172128Z 17006KT 20/M05 A301 RMK A01 T01981049  RH  018%=      5-min Rain = 0
KTAS 172129Z 17006KT 20/M05 A301 RMK A01 T02001046  RH  019%=      5-min Rain = 0
KTAS 172130Z 19006KT 20/M05 A301 RMK A01 T02011048  RH  018%=      5-min Rain = 0
KTAS 172131Z 18006KT 20/M05 A301 RMK A01 T02011048  RH  018%=      5-min Rain = 0
KTAS 172132Z 18005KT 20/M05 A301 RMK A01 T02001048  RH  018%=      5-min Rain = 0
KTAS 172133Z 16006KT 20/M05 A301 RMK A01 T01991050  RH  018%=      5-min Rain = 0
KTAS 172134Z 18004KT 20/M05 A301 RMK A01 T01981050  RH  018%=      5-min Rain = 0
KTAS 172135Z 19008KT 20/M05 A301 RMK A01 T01981048  RH  019%=      5-min Rain = 0
KTAS 172136Z 18008KT 20/M05 A301 RMK A01 T01981050  RH  018%=      5-min Rain = 0
KTAS 172137Z 18005KT 20/M05 A301 RMK A01 T01971050  RH  018%=      5-min Rain = 0
KTAS 172138Z 17004KT 20/M05 A301 RMK A01 T01971050  RH  018%=      5-min Rain = 0
KTAS 172139Z 16007KT 20/M05 A301 RMK A01 T01981048  RH  019%=      5-min Rain = 0
KTAS 172140Z 19006KT 20/M05 A301 RMK A01 T02001047  RH  018%=      5-min Rain = 0
KTAS 172141Z 17007KT 20/M05 A301 RMK A01 T02011049  RH  018%=      5-min Rain = 0
KTAS 172142Z 17005KT 20/M05 A301 RMK A01 T02001051  RH  018%=      5-min Rain = 0
KTAS 172143Z 19008KT 20/M05 A301 RMK A01 T02001048  RH  018%=      5-min Rain = 0
KTAS 172144Z 21007KT 20/M05 A301 RMK A01 T02001049  RH  018%=      5-min Rain = 0
KTAS 172145Z 21007KT 20/M05 A301 RMK A01 T01981050  RH  018%=      5-min Rain = 0
KTAS 172146Z 22005KT 20/M05 A301 RMK A01 T01971050  RH  018%=      5-min Rain = 0
KTAS 172147Z 18006KT 20/M05 A301 RMK A01 T01981047  RH  019%=      5-min Rain = 0
KTAS 172148Z 19007KT 20/M05 A301 RMK A01 T01991048  RH  018%=      5-min Rain = 0
KTAS 172149Z 21006KT 20/M05 A301 RMK A01 T01981049  RH  018%=      5-min Rain = 0
KTAS 172150Z 20007KT 20/M05 A301 RMK A01 T01961050  RH  019%=      5-min Rain = 0
KTAS 172151Z 19009KT 19/M05 A301 RMK A01 T01941049  RH  019%=      5-min Rain = 0
KTAS 172152Z 19009KT 19/M05 A301 RMK A01 T01921050  RH  019%=      5-min Rain = 0
KTAS 172153Z 18009KT 19/M05 A301 RMK A01 T01901049  RH  019%=      5-min Rain = 0
KTAS 172154Z 18008KT 19/M05 A301 RMK A01 T01891048  RH  020%=      5-min Rain = 0
KTAS 172155Z 19006KT 19/M05 A301 RMK A01 T01881048  RH  020%=      5-min Rain = 0
KTAS 172156Z 17006KT 19/M05 A301 RMK A01 T01881049  RH  020%=      5-min Rain = 0
KTAS 172157Z 16006KT 19/M05 A301 RMK A01 T01881049  RH  020%=      5-min Rain = 0
KTAS 172158Z 16005KT 19/M05 A301 RMK A01 T01881050  RH  019%=      5-min Rain = 0
KTAS 172159Z 16005KT 19/M05 A301 RMK A01 T01881050  RH  020%=      5-min Rain = 0
KTAS 172200Z 17005KT 19/M05 A301 RMK A01 T01881050  RH  019%=      5-min Rain = 0
KTAS 172201Z 16006KT 19/M05 A301 RMK A01 T01891049  RH  020%=      5-min Rain = 0
KTAS 172202Z 15006KT 19/M05 A301 RMK A01 T01891051  RH  019%=      5-min Rain = 0
KTAS 172203Z 16006KT 19/M05 A3009 RMK A01 T01891050  RH  019%=      5-min Rain = 0
KTAS 172204Z 17006KT 19/M05 A3009 RMK A01 T01891050  RH  019%=      5-min Rain = 0
KTAS 172205Z 16005KT 19/M05 A301 RMK A01 T01891051  RH  019%=      5-min Rain = 0
KTAS 172206Z 18005KT 19/M05 A301 RMK A01 T01891049  RH  019%=      5-min Rain = 0
KTAS 172207Z 18007KT 19/M05 A301 RMK A01 T01901050  RH  019%=      5-min Rain = 0
KTAS 172208Z 17007KT 19/M05 A301 RMK A01 T01891050  RH  019%=      5-min Rain = 0
KTAS 172209Z 19006KT 19/M05 A3009 RMK A01 T01891048  RH  020%=      5-min Rain = 0
KTAS 172210Z 19005KT 19/M05 A3009 RMK A01 T01891050  RH  019%=      5-min Rain = 0
KTAS 172211Z 18005KT 19/M05 A3009 RMK A01 T01901049  RH  019%=      5-min Rain = 0
KTAS 172212Z 18006KT 19/M05 A3009 RMK A01 T01901047  RH  020%=      5-min Rain = 0
KTAS 172213Z 20006KT 19/M05 A3009 RMK A01 T01911046  RH  020%=      5-min Rain = 0
KTAS 172214Z 20009KT 19/M05 A3009 RMK A01 T01901046  RH  020%=      5-min Rain = 0
KTAS 172215Z 19008KT 19/M05 A3009 RMK A01 T01881046  RH  020%=      5-min Rain = 0
KTAS 172216Z 20008KT 19/M04 A3009 RMK A01 T01871044  RH  020%=      5-min Rain = 0
KTAS 172217Z 20008KT 19/M05 A3009 RMK A01 T01871046  RH  020%=      5-min Rain = 0
KTAS 172218Z 19007KT 19/M05 A301 RMK A01 T01861045  RH  020%=      5-min Rain = 0
KTAS 172219Z 19007KT 19/M05 A301 RMK A01 T01861046  RH  020%=      5-min Rain = 0
KTAS 172220Z 18006KT 19/M05 A301 RMK A01 T01851046  RH  020%=      5-min Rain = 0
KTAS 172221Z 18006KT 19/M05 A301 RMK A01 T01851046  RH  020%=      5-min Rain = 0
KTAS 172222Z 19006KT 19/M05 A301 RMK A01 T01851046  RH  021%=      5-min Rain = 0
KTAS 172223Z 20006KT 19/M04 A301 RMK A01 T01851044  RH  021%=      5-min Rain = 0
KTAS 172224Z 19006KT 19/M05 A301 RMK A01 T01851045  RH  021%=      5-min Rain = 0
KTAS 172225Z 19006KT 19/M04 A301 RMK A01 T01861043  RH  021%=      5-min Rain = 0
KTAS 172226Z 18006KT 19/M04 A301 RMK A01 T01861043  RH  021%=      5-min Rain = 0
KTAS 172227Z 18007KT 19/M04 A301 RMK A01 T01871040  RH  021%=      5-min Rain = 0
KTAS 172228Z 18008KT 19/M04 A301 RMK A01 T01861041  RH  021%=      5-min Rain = 0
KTAS 172229Z 18008KT 19/M04 A301 RMK A01 T01851040  RH  021%=      5-min Rain = 0
KTAS 172230Z 17009KT 19/M04 A301 RMK A01 T01851040  RH  021%=      5-min Rain = 0
KTAS 172231Z 18008KT 18/M04 A301 RMK A01 T01841039  RH  022%=      5-min Rain = 0
KTAS 172232Z 17007KT 18/M04 A301 RMK A01 T01841038  RH  022%=      5-min Rain = 0
KTAS 172233Z 17007KT 19/M04 A301 RMK A01 T01851038  RH  022%=      5-min Rain = 0
KTAS 172234Z 18006KT 18/M04 A301 RMK A01 T01841039  RH  022%=      5-min Rain = 0
KTAS 172235Z 17007KT 18/M04 A301 RMK A01 T01841038  RH  022%=      5-min Rain = 0
KTAS 172236Z 18007KT 18/M04 A301 RMK A01 T01831038  RH  022%=      5-min Rain = 0
KTAS 172237Z 19008KT 18/M04 A301 RMK A01 T01821038  RH  022%=      5-min Rain = 0
KTAS 172238Z 19009KT 18/M04 A301 RMK A01 T01811037  RH  022%=      5-min Rain = 0
KTAS 172239Z 17008KT 18/M04 A301 RMK A01 T01801037  RH  022%=      5-min Rain = 0
KTAS 172240Z 18008KT 18/M04 A301 RMK A01 T01791037  RH  023%=      5-min Rain = 0
KTAS 172241Z 17007KT 18/M04 A3009 RMK A01 T01791037  RH  023%=      5-min Rain = 0
KTAS 172242Z 17009KT 18/M04 A3009 RMK A01 T01781038  RH  023%=      5-min Rain = 0
KTAS 172243Z 17008KT 18/M04 A3009 RMK A01 T01781038  RH  023%=      5-min Rain = 0
KTAS 172244Z 17007KT 18/M04 A3009 RMK A01 T01781037  RH  023%=      5-min Rain = 0
KTAS 172245Z 16007KT 18/M04 A3009 RMK A01 T01771036  RH  023%=      5-min Rain = 0
KTAS 172246Z 17007KT 18/M04 A3009 RMK A01 T01771036  RH  023%=      5-min Rain = 0
KTAS 172247Z 17008KT 18/M04 A3009 RMK A01 T01771035  RH  023%=      5-min Rain = 0
KTAS 172248Z 18009KT 18/M04 A3009 RMK A01 T01771037  RH  023%=      5-min Rain = 0
KTAS 172249Z 17008KT 18/M04 A3009 RMK A01 T01761036  RH  023%=      5-min Rain = 0
KTAS 172250Z 17008KT 18/M04 A3009 RMK A01 T01761036  RH  023%=      5-min Rain = 0
KTAS 172251Z 16010KT 18/M04 A3009 RMK A01 T01761036  RH  023%=      5-min Rain = 0
KTAS 172252Z 17009KT 18/M04 A3009 RMK A01 T01761036  RH  023%=      5-min Rain = 0
KTAS 172253Z 17008KT 18/M04 A3009 RMK A01 T01761036  RH  023%=      5-min Rain = 0
KTAS 172254Z 17007KT 18/M04 A3009 RMK A01 T01761035  RH  023%=      5-min Rain = 0
KTAS 172255Z 17008KT 18/M04 A3009 RMK A01 T01761035  RH  023%=      5-min Rain = 0
KTAS 172256Z 17008KT 18/M04 A3009 RMK A01 T01761035  RH  024%=      5-min Rain = 0
KTAS 172257Z 17008KT 18/M04 A3009 RMK A01 T01751035  RH  024%=      5-min Rain = 0
KTAS 172258Z 17007KT 18/M04 A3009 RMK A01 T01751035  RH  024%=      5-min Rain = 0
KTAS 172259Z 17008KT 18/M04 A3009 RMK A01 T01751035  RH  024%=      5-min Rain = 0
KTAS 172300Z 18008KT 17/M03 A3009 RMK A01 T01741034  RH  024%=      5-min Rain = 0
KTAS 172301Z 17008KT 17/M03 A3009 RMK A01 T01741034  RH  024%=      5-min Rain = 0
KTAS 172302Z 17009KT 17/M03 A3009 RMK A01 T01741033  RH  024%=      5-min Rain = 0
KTAS 172303Z 17008KT 17/M03 A3009 RMK A01 T01741033  RH  024%=      5-min Rain = 0
KTAS 172304Z 18008KT 17/M03 A3009 RMK A01 T01741032  RH  024%=      5-min Rain = 0
KTAS 172305Z 17007KT 17/M03 A3009 RMK A01 T01741032  RH  024%=      5-min Rain = 0
KTAS 172306Z 17008KT 17/M03 A3009 RMK A01 T01741032  RH  024%=      5-min Rain = 0
KTAS 172307Z 18008KT 17/M03 A3009 RMK A01 T01741031  RH  024%=      5-min Rain = 0
KTAS 172308Z 18008KT 17/M03 A3009 RMK A01 T01741031  RH  024%=      5-min Rain = 0
KTAS 172309Z 18008KT 17/M03 A3009 RMK A01 T01741030  RH  025%=      5-min Rain = 0
KTAS 172310Z 18008KT 17/M03 A3009 RMK A01 T01741031  RH  025%=      5-min Rain = 0
KTAS 172311Z 18006KT 18/M03 A3009 RMK A01 T01751030  RH  025%=      5-min Rain = 0
KTAS 172312Z 18007KT 18/M03 A3009 RMK A01 T01761029  RH  025%=      5-min Rain = 0
KTAS 172313Z 18007KT 18/M03 A3009 RMK A01 T01771029  RH  024%=      5-min Rain = 0
KTAS 172314Z 18007KT 18/M03 A3009 RMK A01 T01771030  RH  024%=      5-min Rain = 0
KTAS 172315Z 18006KT 18/M03 A3009 RMK A01 T01781029  RH  024%=      5-min Rain = 0
KTAS 172316Z 18006KT 18/M03 A3009 RMK A01 T01781029  RH  024%=      5-min Rain = 0
KTAS 172317Z 18006KT 18/M03 A3009 RMK A01 T01791030  RH  024%=      5-min Rain = 0
KTAS 172318Z 18006KT 18/M03 A3009 RMK A01 T01791029  RH  024%=      5-min Rain = 0
KTAS 172319Z 18006KT 18/M03 A3009 RMK A01 T01791029  RH  024%=      5-min Rain = 0
KTAS 172320Z 18006KT 18/M03 A3009 RMK A01 T01801029  RH  024%=      5-min Rain = 0
KTAS 172321Z 18005KT 18/M03 A3009 RMK A01 T01801028  RH  024%=      5-min Rain = 0
KTAS 172322Z 18005KT 18/M03 A3009 RMK A01 T01801030  RH  024%=      5-min Rain = 0
KTAS 172323Z 18006KT 18/M03 A3009 RMK A01 T01791029  RH  024%=      5-min Rain = 0
KTAS 172324Z 18006KT 18/M03 A3009 RMK A01 T01791029  RH  024%=      5-min Rain = 0
KTAS 172325Z 18006KT 18/M03 A3009 RMK A01 T01791030  RH  024%=      5-min Rain = 0
KTAS 172326Z 18005KT 18/M03 A3009 RMK A01 T01781029  RH  024%=      5-min Rain = 0
KTAS 172327Z 17006KT 18/M03 A3009 RMK A01 T01781029  RH  024%=      5-min Rain = 0
KTAS 172328Z 17006KT 18/M03 A3008 RMK A01 T01781029  RH  024%=      5-min Rain = 0
KTAS 172329Z 17006KT 18/M03 A3008 RMK A01 T01771029  RH  024%=      5-min Rain = 0
KTAS 172330Z 17006KT 18/M03 A3008 RMK A01 T01761029  RH  025%=      5-min Rain = 0
KTAS 172331Z 17006KT 18/M03 A3008 RMK A01 T01761029  RH  025%=      5-min Rain = 0
KTAS 172332Z 17005KT 18/M03 A3008 RMK A01 T01761029  RH  025%=      5-min Rain = 0
KTAS 172333Z 17006KT 18/M03 A3008 RMK A01 T01761028  RH  025%=      5-min Rain = 0
KTAS 172334Z 17005KT 18/M03 A3008 RMK A01 T01751028  RH  025%=      5-min Rain = 0
KTAS 172335Z 17006KT 18/M03 A3008 RMK A01 T01751028  RH  025%=      5-min Rain = 0
KTAS 172336Z 17006KT 17/M03 A3008 RMK A01 T01741029  RH  025%=      5-min Rain = 0
KTAS 172337Z 17006KT 17/M03 A3008 RMK A01 T01741029  RH  025%=      5-min Rain = 0
KTAS 172338Z 17006KT 17/M03 A3008 RMK A01 T01731029  RH  025%=      5-min Rain = 0
KTAS 172339Z 17005KT 17/M03 A3008 RMK A01 T01731029  RH  025%=      5-min Rain = 0
KTAS 172340Z 16005KT 17/M03 A3008 RMK A01 T01721029  RH  025%=      5-min Rain = 0
KTAS 172341Z 16005KT 17/M03 A3008 RMK A01 T01721029  RH  025%=      5-min Rain = 0
KTAS 172342Z 17005KT 17/M03 A3008 RMK A01 T01711029  RH  025%=      5-min Rain = 0
KTAS 172343Z 17006KT 17/M03 A3008 RMK A01 T01701029  RH  026%=      5-min Rain = 0
KTAS 172344Z 17006KT 17/M03 A3008 RMK A01 T01691028  RH  026%=      5-min Rain = 0
KTAS 172345Z 17006KT 17/M03 A3008 RMK A01 T01681028  RH  026%=      5-min Rain = 0
KTAS 172346Z 17005KT 17/M03 A3008 RMK A01 T01671028  RH  026%=      5-min Rain = 0
KTAS 172347Z 17006KT 17/M03 A3008 RMK A01 T01651028  RH  026%=      5-min Rain = 0
KTAS 172348Z 17006KT 16/M03 A3008 RMK A01 T01641028  RH  027%=      5-min Rain = 0
KTAS 172349Z 17006KT 16/M03 A3008 RMK A01 T01631028  RH  027%=      5-min Rain = 0
KTAS 172350Z 17006KT 16/M03 A3008 RMK A01 T01621028  RH  027%=      5-min Rain = 0
KTAS 172351Z 17006KT 16/M03 A3008 RMK A01 T01601028  RH  027%=      5-min Rain = 0
KTAS 172352Z 17006KT 16/M03 A3008 RMK A01 T01581029  RH  028%=      5-min Rain = 0
KTAS 172353Z 17006KT 16/M03 A3008 RMK A01 T01561029  RH  028%=      5-min Rain = 0
KTAS 172354Z 17006KT 16/M03 A3008 RMK A01 T01551029  RH  028%=      5-min Rain = 0
KTAS 172355Z 17006KT 15/M03 A3008 RMK A01 T01531029  RH  028%=      5-min Rain = 0
KTAS 172356Z 18006KT 15/M03 A3008 RMK A01 T01521029  RH  029%=      5-min Rain = 0
KTAS 172357Z 18006KT 15/M03 A3008 RMK A01 T01511029  RH  029%=      5-min Rain = 0
KTAS 172358Z 17006KT 15/M03 A3008 RMK A01 T01501029  RH  029%=      5-min Rain = 0
KTAS 172359Z 18007KT 15/M03 A3008 RMK A01 T01481030  RH  029%=      5-min Rain = 0
KTAS 180000Z 18007KT 15/M03 A3008 RMK A01 T01471030  RH  029%=      5-min Rain = 0
KTAS 180001Z 18007KT 15/M03 A3008 RMK A01 T01461030  RH  030%=      5-min Rain = 0
KTAS 180002Z 17007KT 14/M03 A3008 RMK A01 T01441030  RH  030%=      5-min Rain = 0
KTAS 180003Z 17007KT 14/M03 A3008 RMK A01 T01431030  RH  030%=      5-min Rain = 0
KTAS 180004Z 17006KT 14/M03 A3008 RMK A01 T01421030  RH  030%=      5-min Rain = 0
KTAS 180005Z 17007KT 14/M03 A3008 RMK A01 T01421030  RH  030%=      5-min Rain = 0
KTAS 180006Z 17007KT 14/M03 A3008 RMK A01 T01411030  RH  030%=      5-min Rain = 0
KTAS 180007Z 17007KT 14/M03 A3008 RMK A01 T01391031  RH  031%=      5-min Rain = 0
KTAS 180008Z 17007KT 14/M03 A3008 RMK A01 T01381031  RH  031%=      5-min Rain = 0
KTAS 180009Z 17007KT 14/M03 A3008 RMK A01 T01361031  RH  031%=      5-min Rain = 0
KTAS 180010Z 17007KT 14/M03 A3008 RMK A01 T01351031  RH  031%=      5-min Rain = 0
KTAS 180011Z 16007KT 13/M03 A3008 RMK A01 T01341032  RH  031%=      5-min Rain = 0
KTAS 180012Z 16007KT 13/M03 A3008 RMK A01 T01341031  RH  032%=      5-min Rain = 0
KTAS 180013Z 16008KT 13/M03 A3008 RMK A01 T01331030  RH  032%=      5-min Rain = 0
KTAS 180014Z 16008KT 13/M03 A3008 RMK A01 T01341029  RH  032%=      5-min Rain = 0
KTAS 180015Z 16008KT 14/M03 A3008 RMK A01 T01351028  RH  032%=      5-min Rain = 0
KTAS 180016Z 16008KT 14/M03 A3008 RMK A01 T01351027  RH  032%=      5-min Rain = 0
KTAS 180017Z 16008KT 14/M03 A3008 RMK A01 T01351027  RH  033%=      5-min Rain = 0
KTAS 180018Z 16008KT 14/M03 A3008 RMK A01 T01351025  RH  033%=      5-min Rain = 0
KTAS 180019Z 16008KT 14/M03 A3008 RMK A01 T01351025  RH  033%=      5-min Rain = 0
KTAS 180020Z 16009KT 14/M03 A3008 RMK A01 T01361025  RH  033%=      5-min Rain = 0
KTAS 180021Z 16008KT 14/M03 A3008 RMK A01 T01361025  RH  033%=      5-min Rain = 0
KTAS 180022Z 16008KT 14/M02 A3008 RMK A01 T01361024  RH  033%=      5-min Rain = 0
KTAS 180023Z 16008KT 14/M02 A3008 RMK A01 T01351024  RH  033%=      5-min Rain = 0
KTAS 180024Z 16008KT 14/M03 A3008 RMK A01 T01351025  RH  033%=      5-min Rain = 0
KTAS 180025Z 16008KT 13/M03 A3008 RMK A01 T01341025  RH  033%=      5-min Rain = 0
KTAS 180026Z 16008KT 13/M03 A3008 RMK A01 T01331025  RH  033%=      5-min Rain = 0
KTAS 180027Z 16008KT 13/M03 A3008 RMK A01 T01331026  RH  033%=      5-min Rain = 0
KTAS 180028Z 16008KT 13/M03 A3007 RMK A01 T01331026  RH  033%=      5-min Rain = 0
KTAS 180029Z 16008KT 13/M03 A3007 RMK A01 T01331026  RH  033%=      5-min Rain = 0
KTAS 180030Z 16008KT 13/M03 A3007 RMK A01 T01331026  RH  033%=      5-min Rain = 0
KTAS 180031Z 16008KT 13/M03 A3007 RMK A01 T01331026  RH  033%=      5-min Rain = 0
KTAS 180032Z 16008KT 13/M03 A3007 RMK A01 T01331026  RH  033%=      5-min Rain = 0
KTAS 180033Z 15008KT 13/M03 A3007 RMK A01 T01331026  RH  033%=      5-min Rain = 0
KTAS 180034Z 15007KT 13/M03 A3007 RMK A01 T01311026  RH  033%=      5-min Rain = 0
KTAS 180035Z 15008KT 13/M03 A3007 RMK A01 T01301026  RH  034%=      5-min Rain = 0
KTAS 180036Z 15007KT 13/M03 A3007 RMK A01 T01291026  RH  034%=      5-min Rain = 0
KTAS 180037Z 14006KT 13/M03 A3007 RMK A01 T01281027  RH  034%=      5-min Rain = 0
KTAS 180038Z 14006KT 13/M03 A3007 RMK A01 T01271028  RH  034%=      5-min Rain = 0
KTAS 180039Z 15005KT 13/M03 A3007 RMK A01 T01261028  RH  034%=      5-min Rain = 0
KTAS 180040Z 15007KT 13/M03 A3007 RMK A01 T01251028  RH  035%=      5-min Rain = 0
KTAS 180041Z 15007KT 12/M03 A3007 RMK A01 T01241028  RH  035%=      5-min Rain = 0
KTAS 180042Z 15008KT 12/M03 A3007 RMK A01 T01221028  RH  035%=      5-min Rain = 0
KTAS 180043Z 15007KT 12/M03 A3007 RMK A01 T01221028  RH  035%=      5-min Rain = 0
KTAS 180044Z 14007KT 12/M03 A3007 RMK A01 T01211028  RH  035%=      5-min Rain = 0
KTAS 180045Z 14007KT 12/M03 A3007 RMK A01 T01201028  RH  035%=      5-min Rain = 0
KTAS 180046Z 14007KT 12/M03 A3007 RMK A01 T01211028  RH  035%=      5-min Rain = 0
KTAS 180047Z 14007KT 12/M03 A3007 RMK A01 T01221028  RH  035%=      5-min Rain = 0
KTAS 180048Z 14007KT 12/M03 A3007 RMK A01 T01221028  RH  035%=      5-min Rain = 0
KTAS 180049Z 14007KT 12/M03 A3007 RMK A01 T01221028  RH  035%=      5-min Rain = 0
KTAS 180050Z 14007KT 12/M03 A3007 RMK A01 T01221028  RH  035%=      5-min Rain = 0
KTAS 180051Z 14008KT 12/M03 A3007 RMK A01 T01221028  RH  035%=      5-min Rain = 0
KTAS 180052Z 15007KT 12/M03 A3007 RMK A01 T01201028  RH  035%=      5-min Rain = 0
KTAS 180053Z 15008KT 12/M03 A3007 RMK A01 T01191028  RH  036%=      5-min Rain = 0
KTAS 180054Z 15006KT 12/M03 A3007 RMK A01 T01191028  RH  036%=      5-min Rain = 0
KTAS 180055Z 14006KT 12/M03 A3007 RMK A01 T01181029  RH  036%=      5-min Rain = 0
KTAS 180056Z 15006KT 12/M03 A3007 RMK A01 T01181029  RH  036%=      5-min Rain = 0
KTAS 180057Z 15007KT 12/M03 A3007 RMK A01 T01171029  RH  036%=      5-min Rain = 0
KTAS 180058Z 15007KT 12/M03 A3007 RMK A01 T01161030  RH  036%=      5-min Rain = 0
KTAS 180059Z 15005KT 12/M03 A3007 RMK A01 T01151030  RH  036%=      5-min Rain = 0
KTAS 180100Z 15007KT 11/M03 A3007 RMK A01 T01141029  RH  037%=      5-min Rain = 0
KTAS 180101Z 15007KT 11/M03 A3007 RMK A01 T01131029  RH  037%=      5-min Rain = 0
KTAS 180102Z 15007KT 11/M03 A3007 RMK A01 T01131029  RH  037%=      5-min Rain = 0
KTAS 180103Z 15007KT 11/M03 A3007 RMK A01 T01131029  RH  037%=      5-min Rain = 0
KTAS 180104Z 16007KT 11/M03 A3007 RMK A01 T01121028  RH  037%=      5-min Rain = 0
KTAS 180105Z 15007KT 11/M03 A3007 RMK A01 T01121029  RH  037%=      5-min Rain = 0
KTAS 180106Z 16008KT 11/M03 A3007 RMK A01 T01101029  RH  038%=      5-min Rain = 0
KTAS 180107Z 15008KT 11/M03 A3007 RMK A01 T01091029  RH  038%=      5-min Rain = 0
KTAS 180108Z 16009KT 11/M03 A3007 RMK A01 T01091028  RH  038%=      5-min Rain = 0
KTAS 180109Z 16009KT 11/M03 A3007 RMK A01 T01091027  RH  038%=      5-min Rain = 0
KTAS 180110Z 16009KT 11/M03 A3007 RMK A01 T01091026  RH  039%=      5-min Rain = 0
KTAS 180111Z 16009KT 11/M03 A3007 RMK A01 T01101026  RH  039%=      5-min Rain = 0
KTAS 180112Z 16009KT 11/M03 A3007 RMK A01 T01101026  RH  039%=      5-min Rain = 0
KTAS 180113Z 16009KT 11/M03 A3007 RMK A01 T01111025  RH  039%=      5-min Rain = 0
KTAS 180114Z 15009KT 11/M03 A3007 RMK A01 T01111025  RH  038%=      5-min Rain = 0
KTAS 180115Z 16009KT 11/M03 A3007 RMK A01 T01111025  RH  038%=      5-min Rain = 0
KTAS 180116Z 16009KT 11/M03 A3007 RMK A01 T01111025  RH  038%=      5-min Rain = 0
KTAS 180117Z 16009KT 11/M03 A3007 RMK A01 T01121025  RH  038%=      5-min Rain = 0
KTAS 180118Z 16009KT 11/M03 A3007 RMK A01 T01131025  RH  038%=      5-min Rain = 0
KTAS 180119Z 16009KT 11/M03 A3007 RMK A01 T01131025  RH  038%=      5-min Rain = 0
KTAS 180120Z 16009KT 11/M03 A3007 RMK A01 T01131025  RH  038%=      5-min Rain = 0
KTAS 180121Z 16008KT 11/M03 A3007 RMK A01 T01131025  RH  038%=      5-min Rain = 0
KTAS 180122Z 16009KT 11/M03 A3007 RMK A01 T01131026  RH  038%=      5-min Rain = 0
KTAS 180123Z 16010KT 11/M03 A3007 RMK A01 T01121026  RH  038%=      5-min Rain = 0
KTAS 180124Z 16010KT 11/M03 A3007 RMK A01 T01111026  RH  038%=      5-min Rain = 0
KTAS 180125Z 17009KT 11/M03 A3007 RMK A01 T01101026  RH  038%=      5-min Rain = 0
KTAS 180126Z 16010KT 11/M03 A3007 RMK A01 T01101027  RH  038%=      5-min Rain = 0
KTAS 180127Z 16010KT 11/M03 A3007 RMK A01 T01101027  RH  038%=      5-min Rain = 0
KTAS 180128Z 16009KT 11/M03 A3007 RMK A01 T01101027  RH  038%=      5-min Rain = 0
KTAS 180129Z 16009KT 11/M03 A3007 RMK A01 T01091028  RH  038%=      5-min Rain = 0
KTAS 180130Z 16009KT 11/M03 A3007 RMK A01 T01061029  RH  039%=      5-min Rain = 0
KTAS 180131Z 16009KT 10/M03 A3007 RMK A01 T01041029  RH  039%=      5-min Rain = 0
KTAS 180132Z 17009KT 10/M03 A3007 RMK A01 T01041028  RH  039%=      5-min Rain = 0
KTAS 180133Z 16008KT 11/M03 A3007 RMK A01 T01051029  RH  039%=      5-min Rain = 0
KTAS 180134Z 16008KT 10/M03 A3007 RMK A01 T01031029  RH  039%=      5-min Rain = 0
KTAS 180135Z 16009KT 10/M03 A3007 RMK A01 T01011029  RH  040%=      5-min Rain = 0
KTAS 180136Z 16010KT 10/M03 A3007 RMK A01 T00981030  RH  040%=      5-min Rain = 0
KTAS 180137Z 16011KT 10/M03 A3007 RMK A01 T00971029  RH  041%=      5-min Rain = 0
KTAS 180138Z 16011KT 10/M03 A3007 RMK A01 T00971028  RH  041%=      5-min Rain = 0
KTAS 180139Z 16011KT 10/M03 A3007 RMK A01 T00981027  RH  041%=      5-min Rain = 0
KTAS 180140Z 17011KT 10/M03 A3007 RMK A01 T00991027  RH  041%=      5-min Rain = 0
KTAS 180141Z 16012KT 10/M03 A3007 RMK A01 T00991027  RH  041%=      5-min Rain = 0
KTAS 180142Z 16012KT 10/M03 A3007 RMK A01 T01011026  RH  041%=      5-min Rain = 0
KTAS 180143Z 16011KT 10/M03 A3007 RMK A01 T01021026  RH  040%=      5-min Rain = 0
KTAS 180144Z 17012KT 10/M03 A3007 RMK A01 T01021026  RH  040%=      5-min Rain = 0
KTAS 180145Z 16012KT 10/M03 A3007 RMK A01 T01041026  RH  040%=      5-min Rain = 0
KTAS 180146Z 16013KT 10/M03 A3007 RMK A01 T01041026  RH  040%=      5-min Rain = 0
KTAS 180147Z 16012KT 11/M03 A3007 RMK A01 T01061025  RH  040%=      5-min Rain = 0
KTAS 180148Z 16011KT 11/M03 A3007 RMK A01 T01071025  RH  040%=      5-min Rain = 0
KTAS 180149Z 16011KT 11/M03 A3007 RMK A01 T01071025  RH  040%=      5-min Rain = 0
KTAS 180150Z 16012KT 11/M03 A3007 RMK A01 T01061025  RH  040%=      5-min Rain = 0
KTAS 180151Z 16012KT 11/M03 A3007 RMK A01 T01051025  RH  040%=      5-min Rain = 0
KTAS 180152Z 17012KT 11/M03 A3007 RMK A01 T01051025  RH  040%=      5-min Rain = 0
KTAS 180153Z 16011KT 11/M03 A3007 RMK A01 T01051025  RH  040%=      5-min Rain = 0
KTAS 180154Z 17011KT 11/M03 A3007 RMK A01 T01061025  RH  040%=      5-min Rain = 0
KTAS 180155Z 17011KT 11/M03 A3007 RMK A01 T01051025  RH  040%=      5-min Rain = 0
KTAS 180156Z 17010KT 10/M03 A3007 RMK A01 T01031025  RH  040%=      5-min Rain = 0
KTAS 180157Z 17009KT 10/M03 A3007 RMK A01 T01021026  RH  041%=      5-min Rain = 0
KTAS 180158Z 17010KT 10/M03 A3007 RMK A01 T01001026  RH  041%=      5-min Rain = 0
KTAS 180159Z 17009KT 10/M03 A3007 RMK A01 T00971027  RH  042%=      5-min Rain = 0
KTAS 180200Z 17010KT 10/M03 A3007 RMK A01 T00961027  RH  042%=      5-min Rain = 0
KTAS 180201Z 17012KT 10/M03 A3007 RMK A01 T00961026  RH  042%=      5-min Rain = 0
KTAS 180202Z 17011KT 10/M03 A3007 RMK A01 T00971026  RH  042%=      5-min Rain = 0
KTAS 180203Z 17010KT 10/M03 A3007 RMK A01 T00981026  RH  042%=      5-min Rain = 0
KTAS 180204Z 18010KT 10/M03 A3007 RMK A01 T00981026  RH  042%=      5-min Rain = 0
KTAS 180205Z 18009KT 10/M03 A3007 RMK A01 T00961026  RH  042%=      5-min Rain = 0
KTAS 180206Z 17009KT 09/M03 A3007 RMK A01 T00941025  RH  043%=      5-min Rain = 0
KTAS 180207Z 18010KT 09/M03 A3007 RMK A01 T00931025  RH  044%=      5-min Rain = 0
KTAS 180208Z 18009KT 09/M03 A3007 RMK A01 T00921025  RH  044%=      5-min Rain = 0
KTAS 180209Z 17009KT 09/M02 A3007 RMK A01 T00931024  RH  044%=      5-min Rain = 0
KTAS 180210Z 18009KT 09/M02 A3007 RMK A01 T00931024  RH  044%=      5-min Rain = 0
KTAS 180211Z 18009KT 09/M02 A3007 RMK A01 T00931024  RH  044%=      5-min Rain = 0
KTAS 180212Z 17010KT 09/M02 A3007 RMK A01 T00941023  RH  044%=      5-min Rain = 0
KTAS 180213Z 18010KT 09/M02 A3008 RMK A01 T00931024  RH  044%=      5-min Rain = 0
KTAS 180214Z 18010KT 09/M02 A3008 RMK A01 T00921023  RH  044%=      5-min Rain = 0
KTAS 180215Z 18011KT 09/M02 A3008 RMK A01 T00931023  RH  044%=      5-min Rain = 0
KTAS 180216Z 17010KT 09/M02 A3008 RMK A01 T00931022  RH  044%=      5-min Rain = 0
KTAS 180217Z 17009KT 09/M02 A3008 RMK A01 T00941022  RH  044%=      5-min Rain = 0
KTAS 180218Z 17011KT 09/M02 A3008 RMK A01 T00941022  RH  044%=      5-min Rain = 0
KTAS 180219Z 18010KT 10/M02 A3008 RMK A01 T00961022  RH  044%=      5-min Rain = 0
KTAS 180220Z 18010KT 10/M02 A3008 RMK A01 T00971022  RH  043%=      5-min Rain = 0
KTAS 180221Z 18009KT 10/M02 A3008 RMK A01 T00951022  RH  044%=      5-min Rain = 0
KTAS 180222Z 18010KT 09/M02 A3008 RMK A01 T00941023  RH  044%=      5-min Rain = 0
KTAS 180223Z 17010KT 09/M02 A3008 RMK A01 T00931023  RH  044%=      5-min Rain = 0
KTAS 180224Z 17010KT 09/M02 A3008 RMK A01 T00921023  RH  044%=      5-min Rain = 0
KTAS 180225Z 18009KT 09/M02 A3008 RMK A01 T00911023  RH  045%=      5-min Rain = 0
KTAS 180226Z 18009KT 09/M02 A3008 RMK A01 T00901023  RH  045%=      5-min Rain = 0
KTAS 180227Z 18009KT 09/M02 A3008 RMK A01 T00891023  RH  045%=      5-min Rain = 0
KTAS 180228Z 17009KT 09/M02 A3008 RMK A01 T00891023  RH  045%=      5-min Rain = 0
KTAS 180229Z 17009KT 09/M02 A3008 RMK A01 T00881023  RH  046%=      5-min Rain = 0
KTAS 180230Z 17010KT 09/M02 A3008 RMK A01 T00891022  RH  046%=      5-min Rain = 0
KTAS 180231Z 17010KT 09/M02 A3008 RMK A01 T00911022  RH  045%=      5-min Rain = 0
KTAS 180232Z 17010KT 09/M02 A3008 RMK A01 T00921022  RH  045%=      5-min Rain = 0
KTAS 180233Z 17010KT 09/M02 A3008 RMK A01 T00921022  RH  045%=      5-min Rain = 0
KTAS 180234Z 17010KT 09/M02 A3008 RMK A01 T00921021  RH  045%=      5-min Rain = 0
KTAS 180235Z 17009KT 09/M02 A3008 RMK A01 T00921021  RH  045%=      5-min Rain = 0
KTAS 180236Z 17010KT 09/M02 A3008 RMK A01 T00921020  RH  045%=      5-min Rain = 0
KTAS 180237Z 17010KT 09/M02 A3008 RMK A01 T00921020  RH  045%=      5-min Rain = 0
KTAS 180238Z 18010KT 09/M02 A3007 RMK A01 T00921019  RH  045%=      5-min Rain = 0
KTAS 180239Z 18010KT 09/M02 A3007 RMK A01 T00921019  RH  046%=      5-min Rain = 0
KTAS 180240Z 17010KT 09/M02 A3007 RMK A01 T00941017  RH  046%=      5-min Rain = 0
KTAS 180241Z 17010KT 10/M02 A3007 RMK A01 T00951017  RH  046%=      5-min Rain = 0
KTAS 180242Z 17010KT 10/M02 A3007 RMK A01 T00961017  RH  045%=      5-min Rain = 0
KTAS 180243Z 17010KT 10/M02 A3007 RMK A01 T00961016  RH  045%=      5-min Rain = 0
KTAS 180244Z 17010KT 10/M02 A3007 RMK A01 T00961016  RH  046%=      5-min Rain = 0
KTAS 180245Z 17010KT 10/M02 A3007 RMK A01 T00951016  RH  046%=      5-min Rain = 0
KTAS 180246Z 17010KT 10/M02 A3007 RMK A01 T00961016  RH  046%=      5-min Rain = 0
KTAS 180247Z 17010KT 10/M02 A3007 RMK A01 T00971015  RH  046%=      5-min Rain = 0
KTAS 180248Z 17011KT 10/M02 A3007 RMK A01 T00971015  RH  046%=      5-min Rain = 0
KTAS 180249Z 17010KT 10/M01 A3007 RMK A01 T00981014  RH  045%=      5-min Rain = 0
KTAS 180250Z 17010KT 10/M02 A3007 RMK A01 T00991015  RH  045%=      5-min Rain = 0
KTAS 180251Z 17010KT 10/M02 A3007 RMK A01 T00981015  RH  045%=      5-min Rain = 0
KTAS 180252Z 17010KT 10/M02 A3007 RMK A01 T00971016  RH  045%=      5-min Rain = 0
KTAS 180253Z 17010KT 10/M02 A3007 RMK A01 T00961016  RH  046%=      5-min Rain = 0
KTAS 180254Z 17010KT 10/M02 A3007 RMK A01 T00951016  RH  046%=      5-min Rain = 0
KTAS 180255Z 18010KT 09/M02 A3007 RMK A01 T00941016  RH  046%=      5-min Rain = 0
KTAS 180256Z 17010KT 09/M02 A3007 RMK A01 T00941015  RH  046%=      5-min Rain = 0
KTAS 180257Z 18010KT 09/M02 A3007 RMK A01 T00941015  RH  047%=      5-min Rain = 0
KTAS 180258Z 18010KT 09/M02 A3006 RMK A01 T00931015  RH  047%=      5-min Rain = 0
KTAS 180259Z 18010KT 09/M01 A3006 RMK A01 T00931014  RH  047%=      5-min Rain = 0
KTAS 180300Z 18009KT 09/M01 A3006 RMK A01 T00941014  RH  047%=      5-min Rain = 0
KTAS 180301Z 18009KT 09/M01 A3006 RMK A01 T00931014  RH  047%=      5-min Rain = 0
KTAS 180302Z 18009KT 09/M01 A3006 RMK A01 T00931013  RH  047%=      5-min Rain = 0
KTAS 180303Z 18010KT 09/M01 A3006 RMK A01 T00941013  RH  047%=      5-min Rain = 0
KTAS 180304Z 18010KT 09/M01 A3006 RMK A01 T00941012  RH  047%=      5-min Rain = 0
KTAS 180305Z 18010KT 10/M01 A3006 RMK A01 T00951012  RH  047%=      5-min Rain = 0
KTAS 180306Z 18010KT 09/M01 A3006 RMK A01 T00941013  RH  047%=      5-min Rain = 0
KTAS 180307Z 18010KT 09/M01 A3006 RMK A01 T00921014  RH  048%=      5-min Rain = 0
KTAS 180308Z 18009KT 09/M01 A3006 RMK A01 T00911014  RH  048%=      5-min Rain = 0
KTAS 180309Z 18010KT 09/M01 A3006 RMK A01 T00901014  RH  048%=      5-min Rain = 0
KTAS 180310Z 18009KT 09/M01 A3005 RMK A01 T00891014  RH  049%=      5-min Rain = 0
KTAS 180311Z 18009KT 09/M01 A3005 RMK A01 T00891013  RH  049%=      5-min Rain = 0
KTAS 180312Z 18009KT 09/M01 A3005 RMK A01 T00881013  RH  049%=      5-min Rain = 0
KTAS 180313Z 19008KT 09/M01 A3005 RMK A01 T00871013  RH  049%=      5-min Rain = 0
KTAS 180314Z 19008KT 09/M01 A3005 RMK A01 T00861014  RH  049%=      5-min Rain = 0
KTAS 180315Z 19008KT 09/M01 A3005 RMK A01 T00851014  RH  050%=      5-min Rain = 0
KTAS 180316Z 19008KT 08/M01 A3005 RMK A01 T00831014  RH  050%=      5-min Rain = 0
KTAS 180317Z 20008KT 08/M01 A3005 RMK A01 T00821014  RH  051%=      5-min Rain = 0
KTAS 180318Z 20008KT 08/M01 A3005 RMK A01 T00811014  RH  051%=      5-min Rain = 0
KTAS 180319Z 20009KT 08/M01 A3005 RMK A01 T00801013  RH  052%=      5-min Rain = 0
KTAS 180320Z 20008KT 08/M01 A3005 RMK A01 T00821012  RH  052%=      5-min Rain = 0
KTAS 180321Z 19009KT 08/M01 A3005 RMK A01 T00831012  RH  051%=      5-min Rain = 0
KTAS 180322Z 19009KT 08/M01 A3005 RMK A01 T00831013  RH  051%=      5-min Rain = 0
KTAS 180323Z 19009KT 08/M01 A3005 RMK A01 T00811013  RH  051%=      5-min Rain = 0
KTAS 180324Z 20009KT 08/M01 A3005 RMK A01 T00801013  RH  052%=      5-min Rain = 0
KTAS 180325Z 20009KT 08/M01 A3005 RMK A01 T00801013  RH  052%=      5-min Rain = 0
KTAS 180326Z 20009KT 08/M01 A3005 RMK A01 T00791013  RH  052%=      5-min Rain = 0
KTAS 180327Z 20009KT 08/M01 A3005 RMK A01 T00771013  RH  053%=      5-min Rain = 0
KTAS 180328Z 20009KT 08/M01 A3005 RMK A01 T00771013  RH  053%=      5-min Rain = 0
KTAS 180329Z 19009KT 08/M01 A3005 RMK A01 T00761013  RH  053%=      5-min Rain = 0
KTAS 180330Z 19009KT 08/M01 A3005 RMK A01 T00751014  RH  053%=      5-min Rain = 0
KTAS 180331Z 19009KT 07/M01 A3005 RMK A01 T00741014  RH  054%=      5-min Rain = 0
KTAS 180332Z 19009KT 07/M01 A3005 RMK A01 T00741013  RH  054%=      5-min Rain = 0
KTAS 180333Z 19008KT 07/M01 A3005 RMK A01 T00741013  RH  054%=      5-min Rain = 0
KTAS 180334Z 19008KT 07/M01 A3005 RMK A01 T00741014  RH  054%=      5-min Rain = 0
KTAS 180335Z 19009KT 07/M01 A3005 RMK A01 T00731014  RH  054%=      5-min Rain = 0
KTAS 180336Z 19008KT 07/M01 A3005 RMK A01 T00721014  RH  054%=      5-min Rain = 0
KTAS 180337Z 19008KT 07/M01 A3005 RMK A01 T00721014  RH  054%=      5-min Rain = 0
KTAS 180338Z 19008KT 07/M01 A3005 RMK A01 T00711014  RH  055%=      5-min Rain = 0
KTAS 180339Z 19008KT 07/M01 A3005 RMK A01 T00701014  RH  055%=      5-min Rain = 0
KTAS 180340Z 19008KT 07/M02 A3005 RMK A01 T00691015  RH  055%=      5-min Rain = 0
KTAS 180341Z 19007KT 07/M01 A3005 RMK A01 T00691014  RH  056%=      5-min Rain = 0
KTAS 180342Z 19008KT 07/M01 A3005 RMK A01 T00681014  RH  056%=      5-min Rain = 0
KTAS 180343Z 20008KT 07/M01 A3005 RMK A01 T00691014  RH  056%=      5-min Rain = 0
KTAS 180344Z 20007KT 07/M01 A3005 RMK A01 T00681014  RH  056%=      5-min Rain = 0
KTAS 180345Z 20007KT 07/M01 A3004 RMK A01 T00691014  RH  056%=      5-min Rain = 0
KTAS 180346Z 20007KT 07/M01 A3004 RMK A01 T00691014  RH  056%=      5-min Rain = 0
KTAS 180347Z 20007KT 07/M01 A3004 RMK A01 T00691014  RH  055%=      5-min Rain = 0
KTAS 180348Z 20007KT 07/M01 A3004 RMK A01 T00701014  RH  055%=      5-min Rain = 0
KTAS 180349Z 20007KT 07/M01 A3004 RMK A01 T00691014  RH  055%=      5-min Rain = 0
KTAS 180350Z 20007KT 07/M02 A3004 RMK A01 T00681015  RH  055%=      5-min Rain = 0
KTAS 180351Z 21007KT 07/M02 A3004 RMK A01 T00681015  RH  056%=      5-min Rain = 0
KTAS 180352Z 21008KT 07/M01 A3004 RMK A01 T00671014  RH  056%=      5-min Rain = 0
KTAS 180353Z 21008KT 07/M01 A3004 RMK A01 T00691014  RH  056%=      5-min Rain = 0
KTAS 180354Z 21008KT 07/M01 A3004 RMK A01 T00691013  RH  056%=      5-min Rain = 0
KTAS 180355Z 21008KT 07/M01 A3004 RMK A01 T00721012  RH  055%=      5-min Rain = 0
KTAS 180356Z 21008KT 07/M01 A3004 RMK A01 T00741011  RH  055%=      5-min Rain = 0
KTAS 180357Z 21008KT 08/M01 A3004 RMK A01 T00761010  RH  055%=      5-min Rain = 0
KTAS 180358Z 21007KT 08/M01 A3004 RMK A01 T00771009  RH  054%=      5-min Rain = 0
KTAS 180359Z 20007KT 08/M01 A3004 RMK A01 T00771010  RH  054%=      5-min Rain = 0
KTAS 180400Z 20007KT 08/M01 A3004 RMK A01 T00761010  RH  054%=      5-min Rain = 0
KTAS 180401Z 20007KT 08/M01 A3004 RMK A01 T00761010  RH  054%=      5-min Rain = 0
KTAS 180402Z 20007KT 08/M01 A3004 RMK A01 T00761010  RH  054%=      5-min Rain = 0
KTAS 180403Z 21007KT 08/M01 A3004 RMK A01 T00761010  RH  054%=      5-min Rain = 0
KTAS 180404Z 21007KT 08/M01 A3004 RMK A01 T00761010  RH  054%=      5-min Rain = 0
KTAS 180405Z 20007KT 08/M01 A3004 RMK A01 T00761010  RH  054%=      5-min Rain = 0
KTAS 180406Z 21008KT 08/M01 A3004 RMK A01 T00771010  RH  054%=      5-min Rain = 0
KTAS 180407Z 21008KT 08/M01 A3004 RMK A01 T00771010  RH  054%=      5-min Rain = 0
KTAS 180408Z 21008KT 08/M01 A3004 RMK A01 T00781009  RH  054%=      5-min Rain = 0
KTAS 180409Z 21008KT 08/M01 A3004 RMK A01 T00791009  RH  054%=      5-min Rain = 0
KTAS 180410Z 21008KT 08/M01 A3004 RMK A01 T00791009  RH  054%=      5-min Rain = 0
KTAS 180411Z 21007KT 08/M01 A3004 RMK A01 T00801009  RH  054%=      5-min Rain = 0
KTAS 180412Z 21008KT 08/M01 A3005 RMK A01 T00801009  RH  053%=      5-min Rain = 0
KTAS 180413Z 21008KT 08/M01 A3005 RMK A01 T00791009  RH  054%=      5-min Rain = 0
KTAS 180414Z 21008KT 08/M01 A3005 RMK A01 T00791009  RH  054%=      5-min Rain = 0
KTAS 180415Z 21009KT 08/M01 A3005 RMK A01 T00801008  RH  054%=      5-min Rain = 0
KTAS 180416Z 21010KT 08/M01 A3005 RMK A01 T00811008  RH  053%=      5-min Rain = 0
KTAS 180417Z 21010KT 08/M01 A3005 RMK A01 T00821008  RH  053%=      5-min Rain = 0
KTAS 180418Z 21011KT 08/M01 A3005 RMK A01 T00841008  RH  052%=      5-min Rain = 0
KTAS 180419Z 21011KT 09/M01 A3004 RMK A01 T00861008  RH  052%=      5-min Rain = 0
KTAS 180420Z 21010KT 09/M01 A3004 RMK A01 T00871008  RH  051%=      5-min Rain = 0
KTAS 180421Z 21010KT 09/M01 A3004 RMK A01 T00881008  RH  051%=      5-min Rain = 0
KTAS 180422Z 21010KT 09/M01 A3004 RMK A01 T00881009  RH  051%=      5-min Rain = 0
KTAS 180423Z 22010KT 09/M01 A3004 RMK A01 T00881008  RH  051%=      5-min Rain = 0
KTAS 180424Z 21010KT 09/M01 A3004 RMK A01 T00891008  RH  051%=      5-min Rain = 0
KTAS 180425Z 22011KT 09/M01 A3004 RMK A01 T00891008  RH  050%=      5-min Rain = 0
KTAS 180426Z 21011KT 09/M01 A3004 RMK A01 T00901008  RH  050%=      5-min Rain = 0
KTAS 180427Z 21011KT 09/M01 A3005 RMK A01 T00911008  RH  050%=      5-min Rain = 0
KTAS 180428Z 21011KT 09/M01 A3005 RMK A01 T00921008  RH  050%=      5-min Rain = 0
KTAS 180429Z 21011KT 09/M01 A3004 RMK A01 T00941008  RH  049%=      5-min Rain = 0
KTAS 180430Z 21011KT 10/M01 A3004 RMK A01 T00951008  RH  049%=      5-min Rain = 0
KTAS 180431Z 21011KT 10/M01 A3004 RMK A01 T00951008  RH  049%=      5-min Rain = 0
KTAS 180432Z 21012KT 10/M01 A3004 RMK A01 T00951008  RH  049%=      5-min Rain = 0
KTAS 180433Z 21011KT 10/M01 A3004 RMK A01 T00961008  RH  048%=      5-min Rain = 0
KTAS 180434Z 21011KT 10/M01 A3004 RMK A01 T00971008  RH  048%=      5-min Rain = 0
KTAS 180435Z 21012KT 10/M01 A3004 RMK A01 T00971008  RH  048%=      5-min Rain = 0
KTAS 180436Z 21012KT 10/M01 A3004 RMK A01 T00981008  RH  048%=      5-min Rain = 0
KTAS 180437Z 21012KT 10/M01 A3004 RMK A01 T00991008  RH  047%=      5-min Rain = 0
KTAS 180438Z 21011KT 10/M01 A3004 RMK A01 T00981008  RH  047%=      5-min Rain = 0
KTAS 180439Z 21011KT 10/M01 A3004 RMK A01 T00971008  RH  048%=      5-min Rain = 0
KTAS 180440Z 21011KT 10/M01 A3004 RMK A01 T00961009  RH  048%=      5-min Rain = 0
KTAS 180441Z 21012KT 10/M01 A3004 RMK A01 T00961008  RH  048%=      5-min Rain = 0
KTAS 180442Z 22011KT 10/M01 A3004 RMK A01 T00951008  RH  049%=      5-min Rain = 0
KTAS 180443Z 21011KT 09/M01 A3004 RMK A01 T00941009  RH  049%=      5-min Rain = 0
KTAS 180444Z 22011KT 09/M01 A3004 RMK A01 T00941009  RH  049%=      5-min Rain = 0
KTAS 180445Z 22011KT 09/M01 A3004 RMK A01 T00931009  RH  049%=      5-min Rain = 0
KTAS 180446Z 21011KT 09/M01 A3004 RMK A01 T00931009  RH  049%=      5-min Rain = 0
KTAS 180447Z 21011KT 09/M01 A3004 RMK A01 T00921009  RH  049%=      5-min Rain = 0
KTAS 180448Z 22011KT 09/M01 A3004 RMK A01 T00921009  RH  049%=      5-min Rain = 0
KTAS 180449Z 22010KT 09/M01 A3004 RMK A01 T00921009  RH  049%=      5-min Rain = 0
KTAS 180450Z 22009KT 09/M01 A3004 RMK A01 T00911009  RH  050%=      5-min Rain = 0
KTAS 180451Z 22010KT 09/M01 A3004 RMK A01 T00891009  RH  050%=      5-min Rain = 0
KTAS 180452Z 21009KT 09/M01 A3004 RMK A01 T00891009  RH  050%=      5-min Rain = 0
KTAS 180453Z 21009KT 09/M01 A3004 RMK A01 T00871010  RH  051%=      5-min Rain = 0
KTAS 180454Z 21009KT 09/M01 A3004 RMK A01 T00861010  RH  051%=      5-min Rain = 0
KTAS 180455Z 21008KT 09/M01 A3004 RMK A01 T00861009  RH  051%=      5-min Rain = 0
KTAS 180456Z 22008KT 09/M01 A3004 RMK A01 T00861009  RH  051%=      5-min Rain = 0
KTAS 180457Z 22008KT 09/M01 A3004 RMK A01 T00851010  RH  051%=      5-min Rain = 0
KTAS 180458Z 22009KT 08/M01 A3004 RMK A01 T00841010  RH  052%=      5-min Rain = 0
KTAS 180459Z 22008KT 08/M01 A3004 RMK A01 T00831009  RH  052%=      5-min Rain = 0
KTAS 180500Z 22007KT 08/M01 A3004 RMK A01 T00821009  RH  052%=      5-min Rain = 0
KTAS 180501Z 22008KT 08/M01 A3004 RMK A01 T00821010  RH  053%=      5-min Rain = 0
KTAS 180502Z 23007KT 08/M01 A3004 RMK A01 T00801010  RH  053%=      5-min Rain = 0
KTAS 180503Z 23008KT 08/M01 A3004 RMK A01 T00791011  RH  053%=      5-min Rain = 0
KTAS 180504Z 23009KT 08/M01 A3004 RMK A01 T00781011  RH  054%=      5-min Rain = 0
KTAS 180505Z 22009KT 08/M01 A3004 RMK A01 T00771010  RH  054%=      5-min Rain = 0
KTAS 180506Z 22009KT 08/M01 A3004 RMK A01 T00761010  RH  054%=      5-min Rain = 0
KTAS 180507Z 22009KT 08/M01 A3004 RMK A01 T00751011  RH  054%=      5-min Rain = 0
KTAS 180508Z 22008KT 07/M01 A3004 RMK A01 T00741011  RH  055%=      5-min Rain = 0
KTAS 180509Z 21009KT 07/M01 A3004 RMK A01 T00741011  RH  055%=      5-min Rain = 0
KTAS 180510Z 22009KT 07/M01 A3004 RMK A01 T00741010  RH  055%=      5-min Rain = 0
KTAS 180511Z 21009KT 08/M01 A3004 RMK A01 T00751009  RH  055%=      5-min Rain = 0
KTAS 180512Z 21008KT 08/M01 A3003 RMK A01 T00761009  RH  055%=      5-min Rain = 0
KTAS 180513Z 21008KT 08/M01 A3003 RMK A01 T00751009  RH  055%=      5-min Rain = 0
KTAS 180514Z 21009KT 08/M01 A3003 RMK A01 T00751009  RH  055%=      5-min Rain = 0
KTAS 180515Z 22008KT 08/M01 A3003 RMK A01 T00761008  RH  055%=      5-min Rain = 0
KTAS 180516Z 21008KT 08/M01 A3003 RMK A01 T00761008  RH  055%=      5-min Rain = 0
KTAS 180517Z 21009KT 08/M01 A3003 RMK A01 T00751009  RH  055%=      5-min Rain = 0
KTAS 180518Z 22009KT 08/M01 A3003 RMK A01 T00751009  RH  055%=      5-min Rain = 0
KTAS 180519Z 21008KT 08/M01 A3003 RMK A01 T00751009  RH  055%=      5-min Rain = 0
KTAS 180520Z 21008KT 07/M01 A3003 RMK A01 T00741009  RH  056%=      5-min Rain = 0
KTAS 180521Z 21008KT 07/M01 A3003 RMK A01 T00731009  RH  056%=      5-min Rain = 0
KTAS 180522Z 21009KT 07/M01 A3003 RMK A01 T00731009  RH  056%=      5-min Rain = 0
KTAS 180523Z 21009KT 07/M01 A3003 RMK A01 T00731008  RH  056%=      5-min Rain = 0
KTAS 180524Z 21009KT 07/M01 A3003 RMK A01 T00741008  RH  056%=      5-min Rain = 0
KTAS 180525Z 21009KT 07/M01 A3003 RMK A01 T00741008  RH  056%=      5-min Rain = 0
KTAS 180526Z 21009KT 08/M01 A3003 RMK A01 T00751007  RH  056%=      5-min Rain = 0
KTAS 180527Z 21008KT 08/M01 A3003 RMK A01 T00751008  RH  056%=      5-min Rain = 0
KTAS 180528Z 21008KT 08/M01 A3003 RMK A01 T00751008  RH  056%=      5-min Rain = 0
KTAS 180529Z 21009KT 07/M01 A3003 RMK A01 T00741008  RH  056%=      5-min Rain = 0
KTAS 180530Z 21009KT 07/M01 A3003 RMK A01 T00741008  RH  056%=      5-min Rain = 0
KTAS 180531Z 21010KT 07/M01 A3003 RMK A01 T00741008  RH  056%=      5-min Rain = 0
KTAS 180532Z 21010KT 07/M01 A3003 RMK A01 T00741008  RH  056%=      5-min Rain = 0
KTAS 180533Z 21009KT 07/M01 A3003 RMK A01 T00741008  RH  056%=      5-min Rain = 0
KTAS 180534Z 21010KT 07/M01 A3003 RMK A01 T00741008  RH  056%=      5-min Rain = 0
KTAS 180535Z 21010KT 08/M01 A3003 RMK A01 T00751008  RH  056%=      5-min Rain = 0
KTAS 180536Z 21009KT 08/M01 A3003 RMK A01 T00761007  RH  056%=      5-min Rain = 0
KTAS 180537Z 21009KT 08/M01 A3003 RMK A01 T00761008  RH  056%=      5-min Rain = 0
KTAS 180538Z 21009KT 08/M01 A3003 RMK A01 T00761008  RH  055%=      5-min Rain = 0
KTAS 180539Z 21009KT 08/M01 A3003 RMK A01 T00751008  RH  056%=      5-min Rain = 0
KTAS 180540Z 21009KT 08/M01 A3003 RMK A01 T00761007  RH  056%=      5-min Rain = 0
KTAS 180541Z 21009KT 08/M01 A3003 RMK A01 T00761007  RH  056%=      5-min Rain = 0
KTAS 180542Z 20009KT 08/M01 A3003 RMK A01 T00771007  RH  055%=      5-min Rain = 0
KTAS 180543Z 21009KT 08/M01 A3003 RMK A01 T00771007  RH  055%=      5-min Rain = 0
KTAS 180544Z 20008KT 08/M01 A3003 RMK A01 T00781006  RH  055%=      5-min Rain = 0
KTAS 180545Z 21008KT 08/M01 A3003 RMK A01 T00771007  RH  055%=      5-min Rain = 0
KTAS 180546Z 21008KT 08/M01 A3003 RMK A01 T00761007  RH  056%=      5-min Rain = 0
KTAS 180547Z 21008KT 08/M01 A3003 RMK A01 T00761007  RH  056%=      5-min Rain = 0
KTAS 180548Z 21008KT 08/M01 A3003 RMK A01 T00761007  RH  056%=      5-min Rain = 0
KTAS 180549Z 21008KT 08/M01 A3003 RMK A01 T00761007  RH  056%=      5-min Rain = 0
KTAS 180550Z 21008KT 08/M01 A3003 RMK A01 T00751008  RH  056%=      5-min Rain = 0
KTAS 180551Z 20008KT 07/M01 A3003 RMK A01 T00741008  RH  056%=      5-min Rain = 0
KTAS 180552Z 21009KT 07/M01 A3003 RMK A01 T00731008  RH  056%=      5-min Rain = 0
KTAS 180553Z 21009KT 07/M01 A3003 RMK A01 T00731008  RH  056%=      5-min Rain = 0
KTAS 180554Z 20009KT 07/M01 A3003 RMK A01 T00741007  RH  056%=      5-min Rain = 0
KTAS 180555Z 21009KT 08/M01 A3003 RMK A01 T00751006  RH  056%=      5-min Rain = 0
KTAS 180556Z 21009KT 08/M01 A3003 RMK A01 T00771006  RH  056%=      5-min Rain = 0
KTAS 180557Z 21009KT 08/M01 A3003 RMK A01 T00791006  RH  055%=      5-min Rain = 0
KTAS 180558Z 21009KT 08/M01 A3003 RMK A01 T00781006  RH  055%=      5-min Rain = 0
KTAS 180559Z 21009KT 08/M01 A3003 RMK A01 T00771007  RH  055%=      5-min Rain = 0

Page generated in 0.171 seconds.